EW2975 Weather Reports


time (UTC)temp
F
wind
direction
speed
knots
gust
knots
rain 1hr
in
rain 24hr
in
rain mn
in
humidity
%
barometer
mb
20260509201505 90 308 2.6 6.1 0.00 0.00 0.00 49 1008.5
20260509201405 90 302 2.6 6.1 0.00 0.00 0.00 49 1008.5
20260509201305 90 290 2.6 6.1 0.00 0.00 0.00 49 1008.5
20260509201205 90 271 2.6 6.1 0.00 0.00 0.00 48 1008.5
20260509201005 90 256 2.6 6.1 0.00 0.00 0.00 48 1008.5
20260509200904 89 247 2.6 6.1 0.00 0.00 0.00 48 1008.4
20260509200805 89 240 2.6 6.1 0.00 0.00 0.00 49 1008.5
20260509200706 90 239 3.5 6.1 0.00 0.00 0.00 49 1008.5
20260509200605 90 244 3.5 6.1 0.00 0.00 0.00 49 1008.5
20260509200505 90 255 2.6 6.1 0.00 0.00 0.00 49 1008.6
20260509200405 90 252 2.6 6.1 0.00 0.00 0.00 49 1008.5
20260509200105 90 253 3.5 11.3 0.00 0.00 0.00 49 1008.6
20260509200006 90 249 3.5 11.3 0.00 0.00 0.00 49 1008.5
20260509195904 90 246 3.5 11.3 0.00 0.00 0.00 50 1008.5
20260509195805 90 242 3.5 11.3 0.00 0.00 0.00 50 1008.5
20260509195704 90 239 3.5 11.3 0.00 0.00 0.00 50 1008.5
20260509195605 90 231 3.5 11.3 0.00 0.00 0.00 50 1008.5
20260509195505 90 218 3.5 11.3 0.00 0.00 0.00 53 1008.5
20260509195405 89 218 3.5 11.3 0.00 0.00 0.00 51 1008.5
20260509195205 89 212 3.5 7.0 0.00 0.00 0.00 52 1008.6
20260509195105 89 210 3.5 7.0 0.00 0.00 0.00 52 1008.6
20260509195005 89 207 3.5 8.7 0.00 0.00 0.00 50 1008.6
20260509194905 89 205 3.5 8.7 0.00 0.00 0.00 53 1008.6
20260509194805 89 209 4.3 8.7 0.00 0.00 0.00 51 1008.6
20260509194704 88 211 4.3 8.7 0.00 0.00 0.00 51 1008.6
20260509194605 89 213 4.3 8.7 0.00 0.00 0.00 51 1008.6
20260509194405 89 216 4.3 8.7 0.00 0.00 0.00 50 1008.7
20260509194305 89 215 4.3 8.7 0.00 0.00 0.00 51 1008.7
20260509194205 89 213 3.5 8.7 0.00 0.00 0.00 51 1008.7
20260509194105 89 211 3.5 8.7 0.00 0.00 0.00 51 1008.7
20260509194005 89 211 3.5 8.7 0.00 0.00 0.00 50 1008.7
20260509193904 89 215 2.6 8.7 0.00 0.00 0.00 48 1008.7
20260509193805 89 217 2.6 8.7 0.00 0.00 0.00 51 1008.8
20260509193505 89 240 1.7 7.8 0.00 0.00 0.00 52 1008.8
20260509193405 89 269 2.6 7.0 0.00 0.00 0.00 51 1008.8
20260509193305 89 287 2.6 7.8 0.00 0.00 0.00 50 1008.7
20260509193204 89 290 2.6 7.8 0.00 0.00 0.00 48 1008.7
20260509193105 89 296 2.6 7.8 0.00 0.00 0.00 51 1008.9
20260509193005 89 301 2.6 7.8 0.00 0.00 0.00 51 1008.9
20260509192904 89 305 2.6 7.8 0.00 0.00 0.00 51 1008.9
20260509192806 90 309 2.6 7.8 0.00 0.00 0.00 49 1008.9
20260509192704 89 312 1.7 7.8 0.00 0.00 0.00 51 1008.9
20260509192605 89 317 1.7 7.8 0.00 0.00 0.00 49 1008.9
20260509192404 90 327 1.7 7.8 0.00 0.00 0.00 51 1009.0
20260509192306 89 335 2.6 6.1 0.00 0.00 0.00 50 1008.9
20260509192204 89 327 2.6 7.8 0.00 0.00 0.00 50 1008.9
20260509192004 88 316 3.5 7.8 0.00 0.00 0.00 52 1009.0
20260509191604 88 314 4.3 7.8 0.00 0.00 0.00 52 1009.0
20260509191505 88 312 3.5 7.8 0.00 0.00 0.00 51 1009.1
20260509191404 88 312 3.5 7.8 0.00 0.00 0.00 51 1009.1
20260509191305 88 313 3.5 7.8 0.00 0.00 0.00 51 1009.1
20260509191204 88 322 2.6 7.0 0.00 0.00 0.00 51 1009.1
20260509191105 88 330 2.6 7.0 0.00 0.00 0.00 51 1009.2
20260509191006 88 338 1.7 7.0 0.00 0.00 0.00 51 1009.2
20260509190805 88 4 1.7 4.3 0.00 0.00 0.00 52 1009.2
20260509190705 88 14 1.7 4.3 0.00 0.00 0.00 51 1009.2
20260509190605 88 14 1.7 4.3 0.00 0.00 0.00 51 1009.2
20260509190505 88 20 1.7 4.3 0.00 0.00 0.00 51 1009.2
20260509190305 88 20 1.7 4.3 0.00 0.00 0.00 51 1009.2
20260509190105 88 357 1.7 4.3 0.00 0.00 0.00 50 1009.3
20260509190006 88 336 1.7 4.3 0.00 0.00 0.00 50 1009.3
20260509185905 88 324 1.7 4.3 0.00 0.00 0.00 52 1009.4
20260509185805 88 312 1.7 4.3 0.00 0.00 0.00 52 1009.4
20260509185704 88 292 1.7 4.3 0.00 0.00 0.00 52 1009.4
20260509185605 88 259 1.7 4.3 0.00 0.00 0.00 51 1009.4
20260509185505 88 241 1.7 3.5 0.00 0.00 0.00 53 1009.5
20260509185306 88 238 1.7 3.5 0.00 0.00 0.00 53 1009.5
20260509185204 88 254 1.7 5.2 0.00 0.00 0.00 52 1009.5
20260509185105 88 263 1.7 5.2 0.00 0.00 0.00 53 1009.6
20260509185004 88 263 2.6 5.2 0.00 0.00 0.00 53 1009.5
20260509184804 87 277 3.5 10.4 0.00 0.00 0.00 53 1009.5
20260509184705 87 281 3.5 10.4 0.00 0.00 0.00 53 1009.5
20260509184604 87 286 3.5 10.4 0.00 0.00 0.00 53 1009.5
20260509184505 87 291 3.5 10.4 0.00 0.00 0.00 54 1009.6
20260509184404 86 297 3.5 10.4 0.00 0.00 0.00 52 1009.6
20260509184305 87 300 3.5 10.4 0.00 0.00 0.00 51 1009.6
20260509184204 87 307 3.5 10.4 0.00 0.00 0.00 51 1009.7
20260509183704 87 342 2.6 7.0 0.00 0.00 0.00 53 1009.7
20260509183605 87 341 2.6 7.8 0.00 0.00 0.00 51 1009.6
20260509183504 88 340 3.5 7.8 0.00 0.00 0.00 50 1009.7
20260509183405 88 331 3.5 7.8 0.00 0.00 0.00 51 1009.7
20260509183304 87 326 3.5 7.8 0.00 0.00 0.00 53 1009.7
20260509183204 87 320 3.5 7.8 0.00 0.00 0.00 52 1009.7
20260509183106 87 315 3.5 7.8 0.00 0.00 0.00 50 1009.7
20260509182905 88 307 3.5 7.8 0.00 0.00 0.00 54 1009.7
20260509182804 88 301 3.5 7.8 0.00 0.00 0.00 54 1009.7
20260509182705 88 298 3.5 7.8 0.00 0.00 0.00 53 1009.8
20260509182605 87 293 2.6 7.8 0.00 0.00 0.00 53 1009.8
20260509182505 87 284 2.6 7.8 0.00 0.00 0.00 54 1009.8
20260509182404 87 278 1.7 7.8 0.00 0.00 0.00 53 1009.8
20260509182306 87 255 1.7 6.1 0.00 0.00 0.00 53 1009.8
20260509182204 87 240 2.6 6.1 0.00 0.00 0.00 54 1009.9
20260509182105 87 236 2.6 6.1 0.00 0.00 0.00 54 1009.9
20260509182004 86 234 2.6 6.1 0.00 0.00 0.00 54 1010.0
20260509181905 86 230 2.6 6.1 0.00 0.00 0.00 54 1010.0
20260509181804 86 225 2.6 6.1 0.00 0.00 0.00 54 1009.9
20260509181705 86 220 1.7 6.1 0.00 0.00 0.00 54 1009.9
20260509181604 86 213 2.6 5.2 0.00 0.00 0.00 54 1009.9
20260509181505 86 212 1.7 5.2 0.00 0.00 0.00 52 1010.0
20260509181404 86 212 1.7 5.2 0.00 0.00 0.00 54 1010.0
20260509181305 86 208 1.7 5.2 0.00 0.00 0.00 55 1010.1
20260509181204 87 205 1.7 5.2 0.00 0.00 0.00 55 1010.0
20260509181104 87 210 1.7 5.2 0.00 0.00 0.00 54 1010.0
20260509180905 86 304 1.7 4.3 0.00 0.00 0.00 54 1010.0
20260509180804 86 356 1.7 6.1 0.00 0.00 0.00 54 1010.1
20260509180704 86 9 2.6 6.1 0.00 0.00 0.00 54 1010.1
20260509180605 86 13 2.6 6.1 0.00 0.00 0.00 54 1010.1
20260509180504 86 15 2.6 6.1 0.00 0.00 0.00 53 1010.2
20260509180404 86 16 2.6 6.1 0.00 0.00 0.00 53 1010.2
20260509180304 86 18 2.6 6.1 0.00 0.00 0.00 54 1010.3
20260509180105 86 18 2.6 6.1 0.00 0.00 0.00 55 1010.3
20260509180005 86 16 2.6 6.1 0.00 0.00 0.00 55 1010.3
20260509175904 86 11 2.6 6.1 0.00 0.00 0.00 55 1010.2
20260509175805 85 7 2.6 6.1 0.00 0.00 0.00 55 1010.2
20260509175604 85 354 2.6 5.2 0.00 0.00 0.00 53 1010.2
20260509175505 85 351 2.6 5.2 0.00 0.00 0.00 54 1010.3
20260509175404 85 339 2.6 6.1 0.00 0.00 0.00 54 1010.2
20260509175306 85 331 2.6 6.1 0.00 0.00 0.00 54 1010.2
20260509175204 85 330 2.6 6.1 0.00 0.00 0.00 54 1010.2
20260509175004 86 347 2.6 6.1 0.00 0.00 0.00 53 1010.2
20260509174905 86 350 3.5 7.0 0.00 0.00 0.00 55 1010.3
20260509174804 86 352 3.5 7.0 0.00 0.00 0.00 54 1010.3
20260509174604 86 355 2.6 7.0 0.00 0.00 0.00 54 1010.3
20260509174505 86 351 2.6 7.0 0.00 0.00 0.00 55 1010.3
20260509174404 86 355 2.6 7.0 0.00 0.00 0.00 54 1010.3
20260509174305 86 1 2.6 7.0 0.00 0.00 0.00 54 1010.3
20260509174204 86 12 2.6 7.0 0.00 0.00 0.00 55 1010.4
20260509174004 86 29 2.6 7.0 0.00 0.00 0.00 58 1010.4
20260509173805 86 55 2.6 7.0 0.00 0.00 0.00 58 1010.4
20260509173705 85 58 2.6 7.0 0.00 0.00 0.00 58 1010.4
20260509173604 85 62 2.6 7.0 0.00 0.00 0.00 58 1010.5
20260509173505 85 69 2.6 7.0 0.00 0.00 0.00 56 1010.4
20260509173404 85 71 2.6 7.0 0.00 0.00 0.00 57 1010.4
20260509173305 85 72 2.6 7.0 0.00 0.00 0.00 56 1010.4
20260509173105 85 41 2.6 7.0 0.00 0.00 0.00 56 1010.4
20260509172905 84 356 2.6 7.0 0.00 0.00 0.00 56 1010.5
20260509172804 84 336 2.6 7.0 0.00 0.00 0.00 55 1010.6
20260509172705 84 323 2.6 7.0 0.00 0.00 0.00 59 1010.6
20260509172604 84 315 2.6 6.1 0.00 0.00 0.00 55 1010.6
20260509172505 85 315 2.6 6.1 0.00 0.00 0.00 56 1010.6
20260509172105 85 337 2.6 6.1 0.00 0.00 0.00 56 1010.6
20260509171905 84 13 1.7 6.1 0.00 0.00 0.00 58 1010.7
20260509171704 84 52 1.7 4.3 0.00 0.00 0.00 56 1010.7
20260509171604 84 57 1.7 4.3 0.00 0.00 0.00 55 1010.7
20260509171505 84 53 1.7 4.3 0.00 0.00 0.00 56 1010.7
20260509171304 84 48 1.7 4.3 0.00 0.00 0.00 55 1010.7
20260509171104 84 39 1.7 4.3 0.00 0.00 0.00 58 1010.7
20260509171005 84 32 1.7 4.3 0.00 0.00 0.00 56 1010.7
20260509170804 84 10 1.7 3.5 0.00 0.00 0.00 57 1010.7
20260509170705 85 355 1.7 3.5 0.00 0.00 0.00 57 1010.8
20260509170604 84 330 1.7 4.3 0.00 0.00 0.00 57 1010.8
20260509170505 84 306 1.7 4.3 0.00 0.00 0.00 57 1010.8
20260509170404 84 297 1.7 4.3 0.00 0.00 0.00 57 1010.8
20260509170305 84 243 1.7 4.3 0.00 0.00 0.00 57 1010.8
20260509170204 84 244 1.7 4.3 0.00 0.00 0.00 57 1010.8
20260509170105 84 249 1.7 4.3 0.00 0.00 0.00 55 1010.9
20260509170004 84 262 1.7 4.3 0.00 0.00 0.00 57 1010.8
20260509165905 84 261 1.7 4.3 0.00 0.00 0.00 58 1010.8
20260509165805 84 296 1.7 4.3 0.00 0.00 0.00 58 1010.8
20260509165704 83 321 2.6 4.3 0.00 0.00 0.00 59 1010.8
20260509165605 83 339 2.6 7.0 0.00 0.00 0.00 58 1010.8
20260509165504 84 353 2.6 7.0 0.00 0.00 0.00 54 1010.8
20260509165306 84 352 2.6 7.0 0.00 0.00 0.00 55 1010.8
20260509165204 84 355 2.6 7.0 0.00 0.00 0.00 56 1010.7
20260509165106 84 358 2.6 7.0 0.00 0.00 0.00 55 1010.8
20260509165004 84 2 3.5 7.0 0.00 0.00 0.00 56 1010.7
20260509164905 84 7 3.5 7.0 0.00 0.00 0.00 57 1010.8
20260509164804 84 11 2.6 7.0 0.00 0.00 0.00 58 1010.8
20260509164705 84 18 2.6 7.0 0.00 0.00 0.00 58 1010.8
20260509164505 84 22 2.6 7.0 0.00 0.00 0.00 58 1010.8
20260509164304 84 23 2.6 7.0 0.00 0.00 0.00 58 1010.8
20260509164205 84 23 2.6 7.0 0.00 0.00 0.00 58 1010.9
20260509164104 84 26 2.6 7.0 0.00 0.00 0.00 58 1010.9
20260509164005 84 25 2.6 7.0 0.00 0.00 0.00 58 1010.8
20260509163905 84 27 2.6 7.0 0.00 0.00 0.00 58 1010.8
20260509163804 84 32 2.6 7.0 0.00 0.00 0.00 57 1010.9
20260509163705 83 32 2.6 7.0 0.00 0.00 0.00 58 1010.8
20260509163604 83 35 2.6 8.7 0.00 0.00 0.00 59 1010.8
20260509163505 83 33 3.5 8.7 0.00 0.00 0.00 58 1010.8
20260509163404 83 27 3.5 8.7 0.00 0.00 0.00 58 1010.8
20260509163304 83 23 3.5 8.7 0.00 0.00 0.00 60 1010.9
20260509163204 83 22 3.5 8.7 0.00 0.00 0.00 59 1010.8
20260509163104 82 20 4.3 8.7 0.00 0.00 0.00 59 1010.8
20260509163005 82 23 3.5 8.7 0.00 0.00 0.00 57 1010.8
20260509162904 82 22 3.5 8.7 0.00 0.00 0.00 56 1010.9
20260509162704 83 25 3.5 8.7 0.00 0.00 0.00 57 1010.8
20260509162604 83 22 3.5 7.8 0.00 0.00 0.00 56 1010.8
20260509162504 83 24 3.5 7.8 0.00 0.00 0.00 54 1010.8
20260509162404 83 28 3.5 7.8 0.00 0.00 0.00 55 1010.8
20260509162206 84 33 3.5 7.8 0.00 0.00 0.00 54 1010.8
20260509162104 84 32 3.5 7.8 0.00 0.00 0.00 56 1010.7
20260509161905 83 24 3.5 9.6 0.00 0.00 0.00 58 1010.7
20260509161704 83 8 3.5 9.6 0.00 0.00 0.00 58 1010.7
20260509161605 83 359 4.3 9.6 0.00 0.00 0.00 56 1010.7
20260509161504 83 354 4.3 10.4 0.00 0.00 0.00 58 1010.6
20260509161405 82 348 4.3 10.4 0.00 0.00 0.00 59 1010.6
20260509161304 82 340 4.3 10.4 0.00 0.00 0.00 58 1010.6
20260509161205 82 338 4.3 10.4 0.00 0.00 0.00 57 1010.7
20260509161104 82 339 4.3 10.4 0.00 0.00 0.00 57 1010.8
20260509161006 82 337 4.3 10.4 0.00 0.00 0.00 57 1010.7
20260509160904 82 339 4.3 10.4 0.00 0.00 0.00 58 1010.6
20260509160804 82 344 4.3 10.4 0.00 0.00 0.00 58 1010.6
20260509160704 82 348 5.2 10.4 0.00 0.00 0.00 58 1010.6
20260509160605 83 352 5.2 10.4 0.00 0.00 0.00 58 1010.6
20260509160504 83 355 4.3 10.4 0.00 0.00 0.00 59 1010.6
20260509160405 82 2 4.3 10.4 0.00 0.00 0.00 59 1010.6
20260509160205 82 9 4.3 10.4 0.00 0.00 0.00 57 1010.5
20260509160104 82 6 5.2 11.3 0.00 0.00 0.00 59 1010.5
20260509160005 82 7 4.3 11.3 0.00 0.00 0.00 59 1010.5
20260509155904 82 7 4.3 11.3 0.00 0.00 0.00 58 1010.5
20260509155804 82 2 4.3 11.3 0.00 0.00 0.00 60 1010.6
20260509155705 82 355 4.3 11.3 0.00 0.00 0.00 59 1010.6
20260509155604 82 355 4.3 11.3 0.00 0.00 0.00 61 1010.5
20260509155504 82 356 4.3 11.3 0.00 0.00 0.00 62 1010.5
20260509155404 82 359 4.3 11.3 0.00 0.00 0.00 61 1010.5
20260509155306 82 2 4.3 11.3 0.00 0.00 0.00 63 1010.5
20260509155204 81 2 4.3 11.3 0.00 0.00 0.00 63 1010.5
20260509155104 81 9 4.3 8.7 0.00 0.00 0.00 63 1010.5
20260509155004 81 11 4.3 8.7 0.00 0.00 0.00 67 1010.6
20260509154804 81 18 4.3 8.7 0.00 0.00 0.00 68 1010.5
20260509154605 81 22 4.3 8.7 0.00 0.00 0.00 68 1010.6
20260509154504 81 24 4.3 8.7 0.00 0.00 0.00 68 1010.6
20260509154404 80 21 4.3 8.7 0.00 0.00 0.00 68 1010.6
20260509154205 81 18 3.5 8.7 0.00 0.00 0.00 68 1010.7
20260509154104 81 17 3.5 8.7 0.00 0.00 0.00 68 1010.7
20260509154004 81 20 3.5 7.8 0.00 0.00 0.00 69 1010.7
20260509153904 81 20 3.5 7.8 0.00 0.00 0.00 70 1010.7
20260509153805 81 22 3.5 8.7 0.00 0.00 0.00 70 1010.7
20260509153704 81 25 3.5 8.7 0.00 0.00 0.00 72 1010.6
20260509153604 81 23 3.5 8.7 0.00 0.00 0.00 72 1010.6
20260509153505 80 20 3.5 8.7 0.00 0.00 0.00 72 1010.6
20260509153404 80 20 3.5 8.7 0.00 0.00 0.00 72 1010.6
20260509153304 80 18 3.5 8.7 0.00 0.00 0.00 72 1010.7
20260509153204 80 19 3.5 8.7 0.00 0.00 0.00 73 1010.7
20260509153004 80 15 3.5 8.7 0.00 0.00 0.00 71 1010.7
20260509152904 80 12 3.5 8.7 0.00 0.00 0.00 72 1010.7
20260509152804 80 8 3.5 8.7 0.00 0.00 0.00 72 1010.7
20260509152705 80 7 3.5 8.7 0.00 0.00 0.00 72 1010.7
20260509152604 80 5 3.5 8.7 0.00 0.00 0.00 74 1010.6
20260509152405 79 7 3.5 10.4 0.00 0.00 0.00 74 1010.6
20260509152306 79 11 3.5 10.4 0.00 0.00 0.00 74 1010.6
20260509152204 79 13 3.5 10.4 0.00 0.00 0.00 75 1010.6
20260509152104 79 18 3.5 10.4 0.00 0.00 0.00 75 1010.6
20260509152005 79 21 3.5 10.4 0.00 0.00 0.00 76 1010.6
20260509151805 79 28 4.3 10.4 0.00 0.00 0.00 76 1010.7
20260509151704 79 28 4.3 10.4 0.00 0.00 0.00 75 1010.7
20260509151605 79 34 3.5 10.4 0.00 0.00 0.00 75 1010.7
20260509151505 79 37 3.5 7.8 0.00 0.00 0.00 77 1010.7
20260509151404 78 36 3.5 7.8 0.00 0.00 0.00 78 1010.7
20260509151305 78 35 3.5 7.8 0.00 0.00 0.00 78 1010.6
20260509151205 78 32 3.5 7.8 0.00 0.00 0.00 78 1010.7
20260509151105 78 29 3.5 7.8 0.00 0.00 0.00 78 1010.7
20260509151004 78 29 3.5 7.8 0.00 0.00 0.00 78 1010.7
20260509150704 78 28 2.6 7.8 0.00 0.00 0.00 78 1010.7
20260509150505 78 35 2.6 7.8 0.00 0.00 0.00 77 1010.7
20260509150404 77 36 2.6 7.8 0.00 0.00 0.00 77 1010.8
20260509150305 77 37 2.6 7.8 0.00 0.00 0.00 77 1010.7
20260509150105 78 37 2.6 7.0 0.00 0.00 0.00 77 1010.7
20260509150004 78 37 2.6 7.0 0.00 0.00 0.00 78 1010.6
20260509145904 78 36 2.6 7.0 0.00 0.00 0.00 78 1010.6
20260509145804 77 31 2.6 7.0 0.00 0.00 0.00 78 1010.6
20260509145705 77 27 2.6 7.0 0.00 0.00 0.00 78 1010.6
20260509145604 78 13 2.6 7.0 0.00 0.00 0.00 77 1010.6
20260509145504 78 1 2.6 6.1 0.00 0.00 0.00 77 1010.6
20260509145404 78 359 2.6 6.1 0.00 0.00 0.00 77 1010.5
20260509145306 78 359 2.6 6.1 0.00 0.00 0.00 77 1010.5
20260509145105 78 359 2.6 7.8 0.00 0.00 0.00 77 1010.5
20260509145004 78 358 2.6 7.8 0.00 0.00 0.00 77 1010.4
20260509144405 78 13 2.6 7.8 0.00 0.00 0.00 78 1010.3
20260509144304 78 9 2.6 7.8 0.00 0.00 0.00 78 1010.3
20260509144205 78 11 2.6 7.8 0.00 0.00 0.00 81 1010.3
20260509144004 77 8 3.5 8.7 0.00 0.00 0.00 81 1010.1
20260509143905 77 3 3.5 8.7 0.00 0.00 0.00 81 1010.2
20260509143804 77 357 3.5 8.7 0.00 0.00 0.00 79 1010.2
20260509143706 77 351 3.5 8.7 0.00 0.00 0.00 79 1010.2
20260509143604 77 350 3.5 8.7 0.00 0.00 0.00 80 1010.2
20260509143505 77 349 3.5 8.7 0.00 0.00 0.00 79 1010.1
20260509143404 77 347 2.6 8.7 0.00 0.00 0.00 79 1010.1
20260509143305 77 349 2.6 8.7 0.00 0.00 0.00 79 1010.1
20260509143204 77 350 2.6 8.7 0.00 0.00 0.00 80 1010.0
20260509143105 77 351 2.6 8.7 0.00 0.00 0.00 80 1009.9
20260509143004 77 348 1.7 7.0 0.00 0.00 0.00 80 1009.9
20260509142905 77 350 1.7 7.0 0.00 0.00 0.00 79 1009.8
20260509142804 77 354 1.7 6.1 0.00 0.00 0.00 79 1009.8
20260509142705 78 359 1.7 6.1 0.00 0.00 0.00 79 1009.8
20260509142604 78 2 1.7 6.1 0.00 0.00 0.00 80 1009.8
20260509142404 77 359 2.6 6.1 0.00 0.00 0.00 83 1009.8
20260509142307 76 359 2.6 9.6 0.00 0.00 0.00 83 1009.8
20260509142205 76 356 2.6 9.6 0.00 0.00 0.00 82 1009.8
20260509142004 76 358 3.5 9.6 0.00 0.00 0.00 82 1009.7
20260509141904 76 4 3.5 9.6 0.00 0.00 0.00 83 1009.7
20260509141804 76 5 3.5 9.6 0.00 0.00 0.00 83 1009.7
20260509141505 76 355 3.5 9.6 0.00 0.00 0.00 83 1009.9
20260509141404 76 351 3.5 9.6 0.00 0.00 0.00 85 1009.9
20260509141304 76 347 2.6 7.8 0.00 0.00 0.00 85 1009.9
20260509141004 75 346 2.6 7.8 0.00 0.00 0.00 85 1009.9
20260509140904 74 347 2.6 10.4 0.00 0.00 0.00 85 1009.8
20260509140804 74 351 2.6 10.4 0.00 0.00 0.00 85 1009.7
20260509140704 74 356 2.6 10.4 0.00 0.00 0.00 85 1009.6
20260509140604 74 2 3.5 10.4 0.00 0.00 0.00 84 1009.5
20260509140504 74 7 3.5 10.4 0.00 0.00 0.00 84 1009.5
20260509140304 74 8 4.3 10.4 0.00 0.00 0.00 84 1009.5
20260509140204 75 7 4.3 10.4 0.00 0.00 0.00 84 1009.7
20260509140105 75 6 4.3 10.4 0.00 0.00 0.00 84 1009.8
20260509140006 75 4 4.3 10.4 0.00 0.00 0.00 84 1009.8
20260509135904 75 358 3.5 10.4 0.00 0.00 0.00 84 1009.8
20260509135804 75 347 3.5 10.4 0.00 0.00 0.00 85 1009.8
20260509135504 75 296 2.6 9.6 0.00 0.00 0.00 85 1009.6
20260509135404 75 281 2.6 7.8 0.00 0.00 0.00 86 1009.4
20260509135306 75 270 2.6 5.2 0.00 0.00 0.00 86 1009.2
20260509135204 75 270 2.6 5.2 0.00 0.00 0.00 86 1009.1
20260509135104 74 278 2.6 7.0 0.00 0.00 0.00 87 1009.1
20260509135004 74 286 2.6 7.0 0.00 0.00 0.00 87 1009.0
20260509134904 74 292 2.6 7.0 0.00 0.00 0.00 87 1009.1
20260509134804 74 293 2.6 7.0 0.00 0.00 0.00 87 1009.1
20260509134704 74 298 2.6 7.0 0.00 0.00 0.00 87 1009.1
20260509134504 73 291 3.5 7.0 0.00 0.00 0.00 88 1009.1
20260509134404 73 281 3.5 7.0 0.00 0.00 0.00 87 1009.1
20260509134304 73 270 3.5 7.0 0.00 0.00 0.00 87 1009.1
20260509134204 73 259 4.3 8.7 0.00 0.00 0.00 87 1009.0
20260509134104 73 247 4.3 12.2 0.00 0.00 0.00 86 1008.9
20260509134005 74 238 5.2 12.2 0.00 0.00 0.00 86 1008.9
20260509133904 74 232 5.2 12.2 0.00 0.00 0.00 87 1008.8
20260509133704 74 222 5.2 12.2 0.00 0.00 0.00 87 1008.7
20260509133604 73 221 6.1 12.2 0.00 0.00 0.00 88 1008.6
20260509133504 73 220 6.1 12.2 0.00 0.00 0.00 88 1008.6
20260509133404 73 219 6.1 12.2 0.00 0.00 0.00 88 1008.5
20260509133204 73 219 7.0 12.2 0.00 0.00 0.00 89 1008.4
20260509133104 73 218 7.0 13.0 0.00 0.00 0.00 89 1008.4
20260509133005 73 218 7.0 13.0 0.00 0.00 0.00 89 1008.3
20260509132904 72 217 6.1 13.0 0.00 0.00 0.00 89 1008.3
20260509132804 72 218 6.1 13.0 0.00 0.00 0.00 89 1008.3
20260509132704 72 217 7.0 13.0 0.00 0.00 0.00 90 1008.3
20260509132604 72 218 7.0 13.0 0.00 0.00 0.00 90 1008.4
20260509132504 72 218 6.1 13.0 0.00 0.00 0.00 90 1008.3
20260509132404 72 218 6.1 13.0 0.00 0.00 0.00 90 1008.3
20260509132306 72 217 6.1 13.0 0.00 0.00 0.00 90 1008.4
20260509132204 72 216 6.1 13.0 0.00 0.00 0.00 91 1008.4
20260509132105 72 215 5.2 10.4 0.00 0.00 0.00 91 1008.5
20260509131906 72 214 5.2 10.4 0.00 0.00 0.00 91 1008.5
20260509131804 71 212 5.2 10.4 0.00 0.00 0.00 91 1008.6
20260509131704 71 213 5.2 10.4 0.00 0.00 0.00 92 1008.6
20260509131605 71 212 5.2 8.7 0.00 0.00 0.00 92 1008.6
20260509131504 71 213 5.2 7.8 0.00 0.00 0.00 92 1008.5
20260509131404 71 215 4.3 7.8 0.00 0.00 0.00 92 1008.6
20260509131304 71 218 4.3 7.8 0.00 0.00 0.00 92 1008.6
20260509131204 71 221 4.3 7.8 0.00 0.00 0.00 93 1008.6
20260509131003 70 234 4.3 7.8 0.00 0.00 0.00 93 1008.6
20260509130904 70 242 4.3 7.8 0.00 0.00 0.00 93 1008.6
20260509130804 70 252 4.3 7.8 0.00 0.00 0.00 93 1008.7
20260509130704 70 256 4.3 7.8 0.00 0.00 0.00 93 1008.7
20260509130603 70 259 4.3 7.8 0.00 0.00 0.00 93 1008.7
20260509130504 70 259 4.3 7.8 0.00 0.00 0.00 93 1008.7
20260509130403 70 259 4.3 7.8 0.00 0.00 0.00 93 1008.7
20260509130304 70 255 4.3 7.8 0.00 0.00 0.00 93 1008.7
20260509130104 70 241 4.3 8.7 0.00 0.00 0.00 94 1008.8
20260509130004 70 232 4.3 8.7 0.00 0.00 0.00 94 1008.7
20260509125904 70 221 4.3 9.6 0.00 0.00 0.00 94 1008.7
20260509125704 70 211 5.2 9.6 0.00 0.00 0.00 94 1008.7
20260509125604 70 210 5.2 9.6 0.00 0.00 0.00 94 1008.7
20260509125504 70 208 5.2 9.6 0.00 0.00 0.00 94 1008.6
20260509125307 69 207 4.3 9.6 0.00 0.00 0.00 94 1008.6
20260509125204 69 208 4.3 9.6 0.00 0.00 0.00 94 1008.6
20260509125104 69 210 4.3 9.6 0.00 0.00 0.00 94 1008.6
20260509124906 69 212 3.5 7.8 0.00 0.00 0.00 94 1008.5
20260509124804 69 213 3.5 7.8 0.00 0.00 0.00 94 1008.5
20260509124704 69 213 3.5 7.8 0.00 0.00 0.00 94 1008.5
20260509124604 69 213 3.5 7.8 0.00 0.00 0.00 94 1008.5
20260509124504 69 212 3.5 7.8 0.00 0.00 0.00 94 1008.5
20260509124404 68 211 3.5 7.8 0.00 0.00 0.00 94 1008.4
20260509124304 68 209 3.5 7.8 0.00 0.00 0.00 94 1008.4
20260509124204 68 207 3.5 7.8 0.00 0.00 0.00 94 1008.4
20260509124104 68 206 4.3 8.7 0.00 0.00 0.00 94 1008.4
20260509123905 68 203 4.3 8.7 0.00 0.00 0.00 94 1008.4
20260509123804 68 201 4.3 8.7 0.00 0.00 0.00 94 1008.3
20260509123705 68 199 4.3 8.7 0.00 0.00 0.00 94 1008.3
20260509123604 68 198 5.2 8.7 0.00 0.00 0.00 94 1008.3
20260509123304 68 194 5.2 10.4 0.00 0.00 0.00 94 1008.4
20260509123005 67 191 6.1 11.3 0.00 0.00 0.00 94 1008.4
20260509122904 67 190 6.1 11.3 0.00 0.00 0.00 94 1008.4
20260509122704 67 190 7.0 12.2 0.00 0.00 0.00 94 1008.4
20260509122604 67 188 7.0 12.2 0.00 0.00 0.00 94 1008.4
20260509122505 67 187 7.0 12.2 0.00 0.00 0.00 94 1008.4
20260509122404 67 185 7.0 12.2 0.00 0.00 0.00 94 1008.4
20260509122306 67 184 7.0 12.2 0.00 0.00 0.00 94 1008.4
20260509122204 67 183 7.0 12.2 0.00 0.00 0.00 94 1008.4
20260509122104 67 183 7.0 12.2 0.00 0.00 0.00 94 1008.4
20260509122004 67 181 6.1 12.2 0.00 0.00 0.00 94 1008.4
20260509121904 67 181 7.0 12.2 0.00 0.00 0.00 94 1008.4
20260509121804 67 179 7.0 12.2 0.00 0.00 0.00 94 1008.4
20260509121704 67 179 7.0 10.4 0.00 0.00 0.00 94 1008.4
20260509121604 67 179 7.0 10.4 0.00 0.00 0.00 94 1008.5
20260509121304 66 182 6.1 10.4 0.00 0.00 0.00 94 1008.5
20260509121204 66 183 6.1 10.4 0.00 0.00 0.00 94 1008.4
20260509121004 66 184 5.2 10.4 0.00 0.00 0.00 94 1008.3
20260509120904 67 184 5.2 10.4 0.00 0.00 0.00 94 1008.4
20260509120806 66 184 4.3 10.4 0.00 0.00 0.00 94 1008.4
20260509120704 66 183 4.3 8.7 0.00 0.00 0.00 94 1008.4
20260509120603 66 182 3.5 8.7 0.00 0.00 0.00 94 1008.3
20260509120504 66 185 2.6 8.7 0.00 0.00 0.00 94 1008.4
20260509120404 67 188 2.6 7.8 0.00 0.00 0.00 94 1008.4
20260509120304 67 191 2.6 6.1 0.00 0.00 0.00 94 1008.5
20260509120203 67 195 2.6 6.1 0.00 0.00 0.00 94 1008.5
20260509120104 67 196 2.6 6.1 0.00 0.00 0.00 94 1008.6
20260509120005 67 199 2.6 9.6 0.00 0.00 0.00 94 1008.7
20260509115704 67 202 3.5 9.6 0.00 0.00 0.00 94 1008.9
20260509115604 67 202 4.3 9.6 0.00 0.00 0.00 94 1008.9
20260509115504 67 201 4.3 9.6 0.00 0.00 0.00 94 1008.9
20260509115404 67 198 5.2 9.6 0.00 0.00 0.00 94 1008.9
20260509115306 67 197 5.2 9.6 0.00 0.00 0.00 94 1008.9
20260509115104 67 195 5.2 9.6 0.00 0.00 0.00 94 1008.9
20260509115004 66 194 5.2 8.7 0.00 0.00 0.00 94 1008.8
20260509114905 66 194 4.3 8.7 0.00 0.00 0.00 94 1008.8
20260509114803 66 193 4.3 8.7 0.00 0.00 0.00 94 1008.8
20260509114704 67 194 4.3 8.7 0.00 0.00 0.00 94 1008.8
20260509114604 67 195 4.3 8.7 0.00 0.00 0.00 94 1008.8
20260509114504 67 197 4.3 7.8 0.00 0.00 0.00 94 1008.8
20260509114404 67 200 3.5 7.8 0.00 0.00 0.00 94 1008.9
20260509114304 67 203 3.5 7.8 0.00 0.00 0.00 94 1008.9
20260509114104 67 207 3.5 7.8 0.00 0.00 0.00 94 1008.9
20260509114004 67 209 3.5 7.0 0.00 0.00 0.00 94 1008.9
20260509113904 67 211 3.5 5.2 0.00 0.00 0.00 94 1008.9
20260509113804 67 213 3.5 5.2 0.00 0.00 0.00 94 1008.9
20260509113704 67 214 3.5 5.2 0.00 0.00 0.00 94 1008.9
20260509113604 67 216 3.5 5.2 0.00 0.00 0.00 94 1008.9
20260509113505 66 217 2.6 5.2 0.00 0.00 0.00 94 1008.9
20260509113404 66 217 3.5 5.2 0.00 0.00 0.00 94 1008.9
20260509113304 66 217 3.5 5.2 0.00 0.00 0.00 94 1009.0
20260509112704 66 221 2.6 5.2 0.00 0.01 0.00 94 1009.1
20260509112504 66 222 2.6 5.2 0.00 0.01 0.00 94 1009.3
20260509112404 66 225 2.6 5.2 0.00 0.01 0.00 94 1009.4
20260509112306 66 227 2.6 5.2 0.00 0.02 0.00 94 1009.4
20260509112204 66 229 2.6 5.2 0.00 0.02 0.00 94 1009.5
20260509112104 67 231 2.6 5.2 0.00 0.02 0.00 94 1009.6
20260509112004 67 232 2.6 5.2 0.00 0.02 0.00 94 1009.7
20260509111904 67 233 1.7 5.2 0.00 0.03 0.00 94 1009.7
20260509111804 67 234 1.7 5.2 0.00 0.03 0.00 94 1009.7
20260509111704 67 235 1.7 4.3 0.00 0.03 0.00 94 1009.8
20260509111604 67 238 1.7 4.3 0.00 0.04 0.00 94 1009.9
20260509111504 67 240 1.7 4.3 0.00 0.05 0.00 94 1010.0
20260509111404 67 245 1.7 4.3 0.00 0.05 0.00 94 1010.0
20260509111204 67 256 1.7 4.3 0.00 0.05 0.00 94 1010.1
20260509111004 67 267 2.6 7.0 0.00 0.06 0.00 94 1010.2
20260509110904 67 271 2.6 7.0 0.00 0.06 0.00 94 1010.2
20260509110804 67 277 2.6 7.0 0.00 0.06 0.00 94 1010.3
20260509110603 67 285 3.5 7.0 0.00 0.06 0.00 94 1010.3
20260509110504 67 289 4.3 7.0 0.00 0.06 0.00 94 1010.3
20260509110304 67 295 4.3 8.7 0.00 0.06 0.00 94 1010.5
20260509110204 67 299 5.2 8.7 0.00 0.06 0.00 94 1010.5
20260509110104 67 301 5.2 8.7 0.00 0.06 0.00 94 1010.6
20260509105904 67 304 5.2 8.7 0.00 0.06 0.00 94 1010.6
20260509105804 67 305 5.2 8.7 0.00 0.06 0.00 94 1010.7
20260509105704 67 307 5.2 8.7 0.00 0.06 0.00 94 1010.7
20260509105604 67 307 5.2 8.7 0.00 0.06 0.00 94 1010.8
20260509105504 67 308 6.1 8.7 0.00 0.06 0.00 94 1010.8
20260509105306 67 308 5.2 8.7 0.00 0.06 0.00 94 1011.0
20260509105104 67 306 5.2 9.6 0.00 0.06 0.00 94 1011.2
20260509105004 67 305 5.2 9.6 0.00 0.06 0.00 94 1011.2
20260509104905 68 303 5.2 9.6 0.00 0.06 0.00 94 1011.2
20260509104803 68 301 5.2 9.6 0.00 0.06 0.00 94 1011.2
20260509104604 68 299 5.2 9.6 0.00 0.06 0.00 94 1011.2
20260509104405 67 296 5.2 9.6 0.00 0.06 0.00 94 1011.1
20260509104304 68 297 5.2 9.6 0.00 0.06 0.00 94 1011.1
20260509104203 68 297 5.2 8.7 0.00 0.06 0.00 94 1011.1
20260509104108 68 298 5.2 8.7 0.00 0.06 0.00 94 1011.1
20260509103904 68 300 5.2 8.7 0.00 0.06 0.00 94 1011.2
20260509103805 68 302 5.2 10.4 0.00 0.06 0.00 94 1011.2
20260509103704 68 304 5.2 10.4 0.00 0.06 0.00 94 1011.3
20260509103605 68 306 6.1 10.4 0.00 0.06 0.00 94 1011.3
20260509103404 68 309 6.1 10.4 0.00 0.06 0.00 94 1011.3
20260509103304 68 310 6.1 10.4 0.00 0.06 0.00 94 1011.3
20260509103204 68 311 6.1 10.4 0.00 0.06 0.00 94 1011.3
20260509103103 68 312 6.1 10.4 0.00 0.06 0.00 94 1011.3
20260509103004 68 314 6.1 10.4 0.00 0.06 0.00 94 1011.2
20260509102904 68 314 6.1 10.4 0.00 0.06 0.00 94 1011.3
20260509102804 68 314 5.2 10.4 0.00 0.06 0.00 94 1011.2
20260509102705 68 314 5.2 10.4 0.00 0.06 0.00 94 1011.2
20260509102604 68 314 5.2 10.4 0.00 0.06 0.00 94 1011.3
20260509102504 68 315 4.3 10.4 0.00 0.06 0.00 94 1011.3
20260509102204 67 312 3.5 7.8 0.00 0.06 0.00 94 1011.2
20260509102004 67 309 3.5 7.8 0.00 0.06 0.00 94 1011.1
20260509101904 67 308 2.6 7.8 0.00 0.06 0.00 94 1011.1
20260509101803 67 307 2.6 7.8 0.00 0.06 0.00 94 1010.9
20260509101704 67 305 2.6 5.2 0.00 0.06 0.00 94 1010.9
20260509101604 67 304 2.6 5.2 0.00 0.06 0.00 94 1010.9
20260509101504 67 303 2.6 5.2 0.00 0.06 0.00 94 1010.9
20260509101404 67 301 2.6 5.2 0.00 0.06 0.00 94 1010.9
20260509101304 67 301 2.6 5.2 0.00 0.06 0.00 94 1010.8
20260509101204 67 302 2.6 5.2 0.00 0.06 0.00 94 1010.8
20260509101104 67 303 2.6 5.2 0.00 0.06 0.00 94 1010.8
20260509101004 67 304 2.6 5.2 0.00 0.06 0.00 94 1010.8
20260509100904 67 305 2.6 3.5 0.00 0.06 0.00 94 1010.8
20260509100805 67 305 1.7 3.5 0.00 0.06 0.00 94 1010.8
20260509100703 67 308 1.7 2.6 0.00 0.06 0.00 94 1010.7
20260509100604 67 315 1.7 2.6 0.00 0.06 0.00 94 1010.7
20260509100404 67 327 1.7 2.6 0.00 0.06 0.00 94 1010.7
20260509100303 67 331 1.7 2.6 0.00 0.06 0.00 94 1010.7
20260509100204 67 335 1.7 2.6 0.00 0.06 0.00 94 1010.7
20260509100104 67 338 1.7 2.6 0.00 0.06 0.00 94 1010.6
20260509100004 67 344 0.9 2.6 0.00 0.06 0.00 94 1010.5
20260509095904 67 354 0.9 2.6 0.00 0.06 0.00 94 1010.5
20260509095803 67 5 0.9 2.6 0.00 0.06 0.00 94 1010.4
20260509095504 67 11 0.9 1.7 0.00 0.06 0.00 94 1010.3
20260509095404 67 11 0.9 1.7 0.00 0.06 0.00 94 1010.3
20260509095306 67 11 0.9 1.7 0.00 0.06 0.00 94 1010.3
20260509095204 67 11 0.0 1.7 0.00 0.06 0.00 94 1010.3
20260509095004 67 11 0.0 1.7 0.00 0.06 0.00 94 1010.2
20260509094903 67 11 0.0 1.7 0.00 0.06 0.00 94 1010.3
20260509094804 67 11 0.0 1.7 0.00 0.06 0.00 94 1010.2
20260509094604 67 11 0.0 0.9 0.00 0.06 0.00 94 1010.3
20260509094504 67 11 0.9 0.9 0.00 0.06 0.00 94 1010.3
20260509094404 67 11 0.9 0.9 0.00 0.06 0.00 94 1010.3
20260509094203 67 11 0.9 0.9 0.00 0.06 0.00 94 1010.3
20260509094104 67 11 0.9 0.9 0.00 0.06 0.00 94 1010.3
20260509093904 67 11 0.9 1.7 0.00 0.06 0.00 94 1010.2
20260509093804 67 11 0.9 1.7 0.00 0.06 0.00 94 1010.1
20260509093705 67 11 0.9 1.7 0.00 0.06 0.00 94 1010.1
20260509093604 67 11 0.9 1.7 0.00 0.06 0.00 94 1010.0
20260509093504 67 11 0.9 1.7 0.00 0.06 0.00 94 1010.1
20260509093404 67 11 0.9 1.7 0.00 0.06 0.00 94 1010.1
20260509093304 67 11 0.9 1.7 0.00 0.06 0.00 94 1010.0
20260509093204 67 11 0.9 1.7 0.00 0.06 0.00 94 1010.0
20260509093104 67 11 0.9 2.6 0.00 0.06 0.00 94 1010.1
20260509093004 67 12 0.9 2.6 0.00 0.06 0.00 94 1010.1
20260509092904 67 9 0.9 2.6 0.00 0.06 0.00 94 1010.0
20260509092804 67 12 0.9 3.5 0.00 0.06 0.00 94 1010.1
20260509092704 68 13 1.7 3.5 0.00 0.06 0.00 94 1010.1
20260509092604 68 13 1.7 3.5 0.00 0.06 0.00 94 1010.2
20260509092504 68 12 1.7 3.5 0.00 0.06 0.00 94 1010.2
20260509092404 68 10 1.7 3.5 0.00 0.06 0.00 94 1010.3
20260509092305 68 9 1.7 3.5 0.00 0.06 0.00 94 1010.3
20260509092204 67 9 1.7 3.5 0.00 0.06 0.00 94 1010.3
20260509092104 67 8 0.9 3.5 0.00 0.06 0.00 94 1010.4
20260509092004 67 6 0.9 3.5 0.00 0.06 0.00 94 1010.4
20260509091704 67 357 0.9 2.6 0.00 0.06 0.00 94 1010.3
20260509091605 67 353 0.9 2.6 0.00 0.06 0.00 94 1010.3
20260509091504 67 351 0.9 2.6 0.00 0.06 0.00 94 1010.2
20260509091403 68 351 0.0 1.7 0.00 0.06 0.00 94 1010.1
20260509091304 68 351 0.0 1.7 0.00 0.06 0.00 94 1010.1
20260509091204 68 351 0.0 1.7 0.00 0.06 0.00 94 1010.1
20260509091104 68 351 0.0 1.7 0.00 0.06 0.00 94 1010.0
20260509091004 68 351 0.9 1.7 0.00 0.06 0.00 94 1010.0
20260509090903 68 353 0.9 1.7 0.00 0.06 0.00 94 1010.1
20260509090804 68 357 0.9 2.6 0.00 0.06 0.00 94 1010.1
20260509090703 68 359 0.9 3.5 0.00 0.06 0.00 94 1010.1
20260509090604 68 1 0.9 3.5 0.00 0.06 0.00 94 1010.2
20260509090505 68 3 0.9 3.5 0.00 0.06 0.00 94 1010.2
20260509090404 68 3 1.7 3.5 0.00 0.06 0.00 94 1010.2
20260509090303 68 4 1.7 4.3 0.00 0.06 0.00 94 1010.3
20260509090204 68 5 1.7 4.3 0.00 0.06 0.00 94 1010.3
20260509090005 67 7 1.7 4.3 0.00 0.06 0.00 94 1010.3
20260509085804 67 2 1.7 4.3 0.00 0.06 0.00 94 1010.4
20260509085703 67 358 1.7 4.3 0.00 0.06 0.00 94 1010.4
20260509085604 67 354 1.7 4.3 0.00 0.06 0.00 94 1010.4
20260509085404 67 345 1.7 4.3 0.00 0.06 0.00 94 1010.4
20260509085306 67 336 1.7 3.5 0.00 0.06 0.00 94 1010.4
20260509085204 67 324 0.9 2.6 0.00 0.06 0.00 94 1010.4
20260509085104 67 309 0.9 1.7 0.00 0.06 0.00 94 1010.3
20260509085003 67 290 0.9 1.7 0.00 0.06 0.00 94 1010.2
20260509084904 67 270 0.9 1.7 0.00 0.06 0.00 93 1010.1
20260509084804 67 243 0.9 1.7 0.00 0.06 0.00 93 1010.1
20260509084704 67 221 0.9 1.7 0.00 0.06 0.00 93 1010.0
20260509084503 67 197 0.9 1.7 0.00 0.06 0.00 93 1009.9
20260509084404 67 193 0.9 1.7 0.00 0.06 0.00 93 1009.9
20260509084303 67 188 0.9 1.7 0.00 0.06 0.00 93 1009.9
20260509084105 67 187 0.9 1.7 0.00 0.06 0.00 93 1009.8
20260509084004 67 187 0.9 1.7 0.00 0.06 0.00 93 1009.8
20260509083904 68 187 0.9 1.7 0.00 0.06 0.00 93 1009.8
20260509083805 68 187 0.9 1.7 0.00 0.06 0.00 93 1009.8
20260509083704 68 187 0.9 1.7 0.00 0.06 0.00 93 1009.8
20260509083603 68 187 0.9 1.7 0.00 0.06 0.00 93 1009.8
20260509083504 68 187 0.9 1.7 0.00 0.06 0.00 93 1009.7
20260509083406 68 187 0.9 1.7 0.00 0.06 0.00 93 1009.7
20260509083304 68 187 0.9 1.7 0.00 0.06 0.00 93 1009.6
20260509083204 68 187 0.9 2.6 0.00 0.06 0.00 93 1009.6
20260509083104 68 186 0.9 3.5 0.00 0.06 0.00 93 1009.6
20260509083003 68 184 1.7 3.5 0.00 0.06 0.00 93 1009.5
20260509082904 68 184 1.7 3.5 0.00 0.06 0.00 93 1009.4
20260509082804 68 184 1.7 3.5 0.00 0.06 0.00 93 1009.4
20260509082705 68 184 2.6 3.5 0.00 0.06 0.00 93 1009.3
20260509082604 68 183 2.6 3.5 0.00 0.06 0.00 93 1009.3
20260509082503 68 182 2.6 3.5 0.00 0.06 0.00 93 1009.2
20260509082404 68 181 2.6 3.5 0.00 0.06 0.00 93 1009.3
20260509082306 68 179 2.6 3.5 0.00 0.06 0.00 93 1009.2
20260509082203 68 178 2.6 3.5 0.00 0.06 0.00 93 1009.2
20260509082104 68 177 1.7 3.5 0.00 0.06 0.00 93 1009.2
20260509082004 68 176 1.7 3.5 0.00 0.06 0.00 93 1009.1
20260509081904 68 173 0.9 3.5 0.00 0.06 0.00 93 1009.2
20260509081804 68 161 0.9 3.5 0.00 0.06 0.00 93 1009.3
20260509081704 68 102 0.9 3.5 0.00 0.06 0.00 93 1009.4
20260509081604 67 15 0.0 3.5 0.00 0.06 0.00 93 1009.5
20260509081504 67 9 0.0 2.6 0.00 0.06 0.00 93 1009.5
20260509081404 68 9 0.0 1.7 0.00 0.06 0.00 93 1009.6
20260509081304 68 9 0.0 0.9 0.00 0.06 0.00 93 1009.6
20260509081205 68 9 0.0 1.7 0.00 0.06 0.00 93 1009.6
20260509081104 68 9 0.0 1.7 0.00 0.06 0.00 93 1009.6
20260509081005 68 9 0.9 1.7 0.00 0.06 0.00 93 1009.7
20260509080904 68 9 0.9 1.7 0.00 0.06 0.00 93 1009.7
20260509080804 68 9 0.9 1.7 0.00 0.06 0.00 93 1009.8
20260509080504 68 350 0.9 1.7 0.00 0.06 0.00 93 1009.9
20260509080404 68 344 0.9 1.7 0.00 0.06 0.00 93 1010.0
20260509080303 68 327 0.9 1.7 0.00 0.06 0.00 93 1010.0
20260509080204 68 304 0.9 1.7 0.00 0.06 0.00 93 1010.0
20260509080004 69 246 0.9 1.7 0.00 0.06 0.00 93 1010.0
20260509075903 69 230 0.9 1.7 0.00 0.06 0.00 93 1010.0
20260509075804 69 218 0.9 1.7 0.00 0.06 0.00 93 1010.0
20260509075703 69 208 0.9 1.7 0.00 0.06 0.00 93 1010.0
20260509075604 69 206 0.9 0.9 0.00 0.06 0.00 93 1010.0
20260509075404 69 206 0.0 1.7 0.00 0.06 0.00 93 1010.0
20260509075306 69 206 0.9 1.7 0.00 0.06 0.00 93 1010.1
20260509075203 69 206 0.9 1.7 0.00 0.06 0.00 93 1010.1
20260509075104 69 206 0.9 2.6 0.00 0.06 0.00 93 1010.2
20260509075005 69 208 0.9 4.3 0.00 0.06 0.00 93 1010.2
20260509074904 69 208 0.9 4.3 0.00 0.06 0.00 93 1010.2
20260509074804 69 207 0.9 4.3 0.00 0.06 0.00 93 1010.2
20260509074604 69 205 1.7 4.3 0.00 0.06 0.00 93 1010.3
20260509074304 70 201 1.7 4.3 0.00 0.06 0.00 93 1010.3
20260509074104 70 198 1.7 4.3 0.00 0.06 0.00 93 1010.3
20260509074004 70 196 1.7 4.3 0.00 0.06 0.00 93 1010.3
20260509073904 70 195 1.7 4.3 0.00 0.06 0.00 93 1010.3
20260509073804 70 194 1.7 4.3 0.00 0.06 0.00 93 1010.3
20260509073704 70 196 1.7 4.3 0.00 0.06 0.00 93 1010.3
20260509073604 70 194 1.7 5.2 0.00 0.06 0.00 93 1010.3
20260509073504 70 193 1.7 5.2 0.00 0.06 0.00 93 1010.4
20260509073405 70 192 2.6 5.2 0.00 0.06 0.00 93 1010.4
20260509073303 70 192 2.6 5.2 0.00 0.06 0.00 93 1010.4
20260509073203 70 192 2.6 5.2 0.00 0.06 0.00 93 1010.4
20260509073104 70 193 2.6 5.2 0.00 0.06 0.00 93 1010.4
20260509072903 70 194 2.6 5.2 0.00 0.06 0.00 93 1010.3
20260509072805 70 194 2.6 5.2 0.00 0.06 0.00 93 1010.3
20260509072604 69 196 2.6 5.2 0.00 0.06 0.00 93 1010.1
20260509072504 69 199 2.6 5.2 0.00 0.06 0.00 93 1010.1
20260509072104 69 203 2.6 5.2 0.00 0.06 0.00 93 1010.0
20260509072004 69 203 2.6 5.2 0.00 0.06 0.00 93 1010.0
20260509071903 69 203 2.6 5.2 0.00 0.06 0.00 93 1010.0
20260509071603 69 197 1.7 4.3 0.00 0.06 0.00 93 1010.0
20260509071504 69 193 1.7 3.5 0.00 0.06 0.00 92 1009.9
20260509071404 69 191 1.7 3.5 0.00 0.06 0.00 92 1009.9
20260509071304 69 188 1.7 3.5 0.00 0.06 0.00 92 1009.9
20260509071204 69 187 1.7 3.5 0.00 0.06 0.00 92 1009.9
20260509071104 69 184 0.9 3.5 0.00 0.06 0.00 92 1009.9
20260509071004 69 181 0.9 2.6 0.00 0.06 0.00 92 1009.9
20260509070904 69 178 0.9 2.6 0.00 0.06 0.00 92 1010.0
20260509070804 69 175 0.9 2.6 0.00 0.06 0.00 92 1009.9
20260509070404 69 175 0.9 1.7 0.00 0.06 0.00 92 1010.2
20260509070303 69 174 0.9 1.7 0.00 0.06 0.00 92 1010.2
20260509070204 69 175 0.9 1.7 0.00 0.06 0.00 92 1010.2
20260509070004 70 175 0.9 1.7 0.00 0.06 0.00 92 1010.1
20260509065904 70 175 0.9 1.7 0.00 0.06 0.00 92 1010.1
20260509065804 70 175 0.9 3.5 0.00 0.06 0.00 92 1010.1
20260509065703 70 175 1.7 3.5 0.00 0.06 0.00 92 1010.1
20260509065503 70 174 1.7 3.5 0.00 0.06 0.00 92 1010.1
20260509065404 70 174 1.7 3.5 0.00 0.06 0.00 92 1010.1
20260509065306 70 174 1.7 3.5 0.00 0.06 0.00 92 1010.2
20260509065204 70 175 1.7 3.5 0.00 0.06 0.00 92 1010.1
20260509065103 70 175 1.7 3.5 0.00 0.06 0.00 92 1010.1
20260509065004 70 175 1.7 3.5 0.00 0.06 0.00 92 1010.1
20260509064903 70 177 1.7 3.5 0.00 0.06 0.00 92 1010.1
20260509064504 70 190 1.7 2.6 0.00 0.06 0.00 92 1010.1
20260509064404 70 190 1.7 2.6 0.00 0.06 0.00 92 1010.1
20260509064304 70 189 1.7 2.6 0.00 0.06 0.00 92 1010.2
20260509064203 70 192 1.7 3.5 0.00 0.06 0.00 92 1010.2
20260509064104 70 194 1.7 3.5 0.00 0.06 0.00 92 1010.2
20260509064004 70 196 1.7 3.5 0.00 0.06 0.00 92 1010.3
20260509063803 70 203 1.7 3.5 0.00 0.06 0.00 92 1010.5
20260509063704 70 207 1.7 3.5 0.00 0.06 0.00 92 1010.5
20260509063603 70 210 1.7 3.5 0.00 0.06 0.00 92 1010.5
20260509063504 70 212 0.9 3.5 0.00 0.06 0.00 93 1010.5
20260509063403 69 216 0.9 3.5 0.00 0.06 0.00 92 1010.5
20260509063305 69 221 0.9 3.5 0.00 0.06 0.00 92 1010.5
20260509063203 69 224 0.9 3.5 0.00 0.06 0.00 92 1010.5
20260509063104 69 228 0.9 3.5 0.00 0.06 0.00 92 1010.5
20260509063003 69 240 0.0 2.6 0.00 0.06 0.00 92 1010.5
20260509062904 69 241 0.0 2.6 0.00 0.06 0.00 92 1010.4
20260509062803 69 241 0.0 2.6 0.00 0.06 0.00 92 1010.4
20260509062704 69 240 0.0 1.7 0.00 0.06 0.00 92 1010.3
20260509062605 69 241 0.0 0.9 0.00 0.06 0.00 92 1010.2
20260509062505 69 241 0.0 0.9 0.00 0.06 0.00 92 1010.2
20260509062406 69 241 0.0 0.9 0.00 0.06 0.00 92 1010.2
20260509062306 69 240 0.0 1.7 0.00 0.06 0.00 92 1010.2
20260509062206 70 241 0.0 1.7 0.00 0.06 0.00 92 1010.2
20260509062105 70 251 0.0 1.7 0.00 0.06 0.00 92 1010.1
20260509062007 70 287 0.9 1.7 0.00 0.06 0.00 92 1010.1
20260509061906 70 320 0.9 1.7 0.00 0.06 0.00 92 1010.1
20260509061706 70 355 0.9 1.7 0.00 0.06 0.00 92 1010.1
20260509061606 70 2 0.9 1.7 0.00 0.06 0.00 92 1010.1
20260509061406 70 11 0.9 1.7 0.00 0.06 0.00 92 1010.1
20260509061206 69 22 0.9 1.7 0.00 0.06 0.00 92 1010.1
20260509061006 69 25 0.9 1.7 0.00 0.06 0.00 92 1010.1
20260509060905 69 25 0.9 1.7 0.00 0.06 0.00 92 1010.1
20260509060807 69 25 0.9 1.7 0.00 0.06 0.00 92 1010.2
20260509060706 69 25 0.9 1.7 0.00 0.06 0.00 92 1010.2
20260509060606 69 25 0.9 1.7 0.00 0.06 0.00 92 1010.2
20260509060506 69 25 0.9 1.7 0.00 0.06 0.00 92 1010.3
20260509060406 69 25 0.9 1.7 0.00 0.06 0.00 92 1010.3
20260509060306 69 25 0.9 1.7 0.00 0.06 0.00 92 1010.3
20260509060006 69 25 0.9 1.7 0.00 0.06 0.00 92 1010.2
20260509055905 69 25 0.9 1.7 0.00 0.06 0.00 92 1010.2
20260509055806 69 25 0.9 1.7 0.00 0.06 0.00 92 1010.1
20260509055705 69 25 0.9 0.9 0.00 0.06 0.00 92 1010.1
20260509055406 69 25 0.9 0.9 0.00 0.06 0.00 92 1010.0
20260509055307 69 25 0.9 0.9 0.00 0.06 0.00 92 1009.9
20260509055205 69 25 0.9 0.9 0.00 0.06 0.00 92 1009.9
20260509055106 69 25 0.9 0.9 0.00 0.06 0.00 92 1009.9
20260509055005 69 25 0.9 1.7 0.00 0.06 0.00 92 1009.8
20260509054906 69 25 0.9 1.7 0.00 0.06 0.00 92 1009.9
20260509054805 69 25 0.9 1.7 0.00 0.06 0.00 92 1009.8
20260509054706 69 25 0.9 1.7 0.00 0.06 0.00 92 1009.8
20260509054605 69 25 0.9 1.7 0.00 0.06 0.00 92 1009.8
20260509054506 69 25 0.9 1.7 0.00 0.06 0.00 92 1009.7
20260509054406 69 25 0.9 1.7 0.00 0.06 0.00 92 1009.7
20260509054105 69 25 0.0 1.7 0.00 0.06 0.00 92 1009.7
20260509054006 69 25 0.0 0.9 0.00 0.06 0.00 92 1009.7
20260509053905 69 25 0.0 0.9 0.00 0.06 0.00 92 1009.7
20260509053806 69 25 0.0 0.9 0.00 0.06 0.00 92 1009.6
20260509053705 69 25 0.0 0.9 0.00 0.06 0.00 92 1009.6
20260509053606 69 25 0.0 0.9 0.00 0.06 0.00 92 1009.6
20260509053406 69 25 0.0 0.9 0.00 0.06 0.00 92 1009.5
20260509053206 69 25 0.0 0.9 0.00 0.06 0.00 92 1009.5
20260509052906 69 25 0.0 0.9 0.00 0.06 0.00 92 1009.5
20260509052806 69 25 0.0 0.9 0.00 0.06 0.00 92 1009.4
20260509052705 69 25 0.0 0.9 0.00 0.06 0.00 92 1009.4
20260509052606 69 25 0.0 0.9 0.00 0.06 0.00 92 1009.4
20260509052406 69 25 0.0 2.6 0.00 0.06 0.00 92 1009.4
20260509052307 69 25 0.0 2.6 0.00 0.06 0.00 92 1009.4
20260509052105 69 26 0.9 2.6 0.00 0.06 0.00 92 1009.3
20260509051905 69 28 0.9 2.6 0.00 0.06 0.00 92 1009.3
20260509051805 69 29 0.9 2.6 0.00 0.06 0.00 92 1009.3
20260509051605 69 29 0.9 2.6 0.00 0.06 0.00 92 1009.3
20260509051506 69 30 0.9 1.7 0.00 0.06 0.00 92 1009.3
20260509051405 69 30 0.9 2.6 0.00 0.06 0.00 92 1009.2
20260509051206 69 31 0.9 2.6 0.00 0.06 0.00 92 1009.2
20260509051105 69 31 0.9 2.6 0.00 0.06 0.00 92 1009.2
20260509051006 69 31 0.9 2.6 0.00 0.06 0.00 92 1009.2
20260509050905 69 31 0.9 2.6 0.00 0.06 0.00 92 1009.2
20260509050806 69 31 0.9 2.6 0.00 0.06 0.00 92 1009.2
20260509050705 69 30 0.9 2.6 0.00 0.06 0.00 92 1009.2
20260509050606 68 31 0.0 2.6 0.00 0.06 0.00 92 1009.2
20260509050505 68 34 0.0 2.6 0.00 0.06 0.00 92 1009.2
20260509050406 68 43 0.0 1.7 0.00 0.06 0.00 92 1009.2
20260509050305 68 0 0.0 0.0 0.00 0.06 0.00 92 1009.2
20260509050105 68 0 0.0 0.0 0.00 0.06 0.00 92 1009.2
20260509050006 68 0 0.0 0.0 0.00 0.06 0.00 92 1009.2
20260509045905 68 0 0.0 0.0 0.00 0.06 0.06 92 1009.2
20260509045806 68 0 0.0 0.0 0.00 0.06 0.06 92 1009.2
20260509045705 68 0 0.0 0.0 0.00 0.06 0.06 92 1009.2
20260509045505 68 0 0.0 0.0 0.00 0.06 0.06 92 1009.3
20260509045406 68 0 0.0 0.0 0.00 0.06 0.06 92 1009.3
20260509045306 68 0 0.0 0.0 0.00 0.06 0.06 92 1009.3
20260509045206 68 0 0.0 0.0 0.00 0.06 0.06 92 1009.3
20260509045106 68 0 0.0 0.0 0.00 0.06 0.06 92 1009.3
20260509045005 68 0 0.0 0.0 0.00 0.06 0.06 92 1009.3
20260509044906 68 0 0.0 0.0 0.00 0.06 0.06 92 1009.3
20260509044805 68 0 0.0 0.0 0.00 0.06 0.06 92 1009.3
20260509044605 68 0 0.0 0.0 0.00 0.06 0.06 92 1009.3
20260509044505 68 0 0.0 0.0 0.00 0.06 0.06 92 1009.3
20260509044406 68 0 0.0 0.0 0.00 0.06 0.06 92 1009.3
20260509044305 68 0 0.0 0.0 0.00 0.06 0.06 92 1009.3
20260509044206 67 0 0.0 0.0 0.00 0.06 0.06 92 1009.4
20260509044105 67 0 0.0 0.0 0.00 0.06 0.06 92 1009.4
20260509044006 67 0 0.0 0.0 0.00 0.06 0.06 92 1009.4
20260509043905 67 0 0.0 0.0 0.00 0.06 0.06 92 1009.5
20260509043806 67 0 0.0 0.0 0.00 0.06 0.06 92 1009.4
20260509043705 67 0 0.0 0.0 0.00 0.06 0.06 92 1009.4
20260509043606 67 0 0.0 0.0 0.00 0.06 0.06 92 1009.4
20260509043505 67 0 0.0 0.0 0.00 0.06 0.06 92 1009.4
20260509043406 67 0 0.0 0.0 0.00 0.06 0.06 92 1009.4
20260509043305 67 0 0.0 0.0 0.00 0.06 0.06 92 1009.4
20260509043206 67 0 0.0 0.0 0.00 0.06 0.06 92 1009.4
20260509043105 67 0 0.0 0.0 0.00 0.06 0.06 92 1009.4
20260509043006 67 0 0.0 0.0 0.00 0.06 0.06 92 1009.4
20260509042905 67 0 0.0 0.0 0.00 0.06 0.06 92 1009.4
20260509042806 67 0 0.0 0.0 0.00 0.06 0.06 92 1009.4
20260509042705 67 0 0.0 0.0 0.00 0.06 0.06 92 1009.3
20260509042607 67 0 0.0 0.0 0.00 0.06 0.06 92 1009.4
20260509042505 67 0 0.0 0.0 0.00 0.06 0.06 92 1009.3
20260509042406 67 0 0.0 0.0 0.00 0.06 0.06 92 1009.3
20260509042205 67 0 0.0 0.0 0.00 0.06 0.06 92 1009.3
20260509042006 67 0 0.0 0.0 0.00 0.06 0.06 92 1009.2
20260509041905 67 0 0.0 0.0 0.00 0.06 0.06 92 1009.2
20260509041806 67 0 0.0 0.0 0.00 0.06 0.06 92 1009.2
20260509041407 67 0 0.0 0.0 0.00 0.06 0.06 92 1009.3
20260509041305 67 0 0.0 0.0 0.00 0.06 0.06 92 1009.3
20260509041106 67 0 0.0 0.0 0.00 0.06 0.06 92 1009.3
20260509040905 67 0 0.0 0.0 0.00 0.06 0.06 92 1009.3
20260509040806 67 0 0.0 0.0 0.00 0.06 0.06 92 1009.3
20260509040606 67 0 0.0 0.0 0.00 0.06 0.06 91 1009.2
20260509040505 68 0 0.0 0.0 0.00 0.06 0.06 92 1009.2
20260509040406 68 0 0.0 0.0 0.00 0.06 0.06 92 1009.2
20260509040305 68 0 0.0 0.0 0.00 0.06 0.06 92 1009.2
20260509040105 68 0 0.0 0.0 0.00 0.06 0.06 92 1009.2
20260509040006 68 0 0.0 0.0 0.00 0.06 0.06 92 1009.2
20260509035806 68 0 0.0 0.0 0.00 0.06 0.06 92 1009.3
20260509035705 68 0 0.0 0.0 0.00 0.06 0.06 92 1009.3
20260509035606 68 0 0.0 0.0 0.00 0.06 0.06 92 1009.2
20260509035505 68 0 0.0 0.0 0.00 0.06 0.06 91 1009.2
20260509035406 68 0 0.0 0.0 0.00 0.06 0.06 91 1009.2
20260509035306 68 0 0.0 0.0 0.00 0.06 0.06 91 1009.1
20260509035206 68 0 0.0 0.0 0.00 0.06 0.06 91 1009.1
20260509035105 68 0 0.0 0.0 0.00 0.06 0.06 91 1009.1
20260509035006 68 0 0.0 0.0 0.00 0.06 0.06 91 1009.1
20260509034905 68 0 0.0 0.0 0.00 0.06 0.06 91 1009.0
20260509034806 68 0 0.0 0.0 0.00 0.06 0.06 91 1009.1
20260509034706 68 0 0.0 0.0 0.00 0.06 0.06 92 1009.1
20260509034606 68 0 0.0 0.0 0.00 0.06 0.06 92 1009.1
20260509034405 68 0 0.0 0.0 0.00 0.06 0.06 91 1009.0
20260509034306 68 0 0.0 0.0 0.00 0.06 0.06 91 1009.0
20260509034205 68 0 0.0 0.0 0.00 0.06 0.06 91 1008.9
20260509034106 68 0 0.0 0.0 0.00 0.06 0.06 91 1008.9
20260509034006 68 0 0.0 0.0 0.00 0.06 0.06 91 1008.9
20260509033906 68 0 0.0 0.0 0.00 0.06 0.06 91 1008.8
20260509033806 68 176 0.0 0.9 0.00 0.06 0.06 91 1008.9
20260509033706 68 176 0.0 0.9 0.00 0.06 0.06 91 1008.9
20260509033607 68 176 0.0 0.9 0.00 0.06 0.06 91 1008.8
20260509033506 68 176 0.0 0.9 0.00 0.06 0.06 91 1008.9
20260509033405 68 176 0.0 0.9 0.00 0.06 0.06 91 1008.9
20260509033306 68 176 0.0 0.9 0.00 0.06 0.06 91 1008.9
20260509033205 68 176 0.0 0.9 0.00 0.06 0.06 91 1008.9
20260509033106 68 175 0.0 0.9 0.00 0.06 0.06 91 1008.9
20260509033005 68 175 0.0 0.9 0.00 0.06 0.06 91 1008.9
20260509032805 68 175 0.0 0.9 0.00 0.06 0.06 91 1008.9
20260509032605 68 175 0.0 0.9 0.00 0.06 0.06 91 1008.9
20260509032506 68 175 0.0 0.9 0.00 0.06 0.06 91 1008.8
20260509032405 68 175 0.0 0.9 0.00 0.06 0.06 91 1008.9
20260509032307 68 175 0.0 0.9 0.00 0.06 0.06 91 1008.9
20260509032106 68 175 0.0 0.9 0.00 0.06 0.06 91 1008.8
20260509032006 68 175 0.0 0.9 0.00 0.06 0.06 91 1008.8
20260509031905 68 176 0.0 0.9 0.00 0.06 0.06 91 1008.8
20260509031806 68 0 0.0 0.0 0.00 0.06 0.06 91 1008.8
20260509031705 68 0 0.0 0.0 0.00 0.06 0.06 91 1008.8
20260509031607 68 0 0.0 0.0 0.00 0.06 0.06 91 1008.8
20260509031505 68 175 0.0 0.9 0.00 0.06 0.06 91 1008.8
20260509031305 68 176 0.0 0.9 0.00 0.06 0.06 91 1008.8
20260509031005 69 175 0.0 1.7 0.00 0.06 0.06 91 1008.9
20260509030906 68 175 0.9 1.7 0.00 0.06 0.06 91 1008.8
20260509030805 69 176 0.9 1.7 0.00 0.06 0.06 91 1008.7
20260509030506 69 176 0.9 1.7 0.00 0.06 0.06 91 1008.6
20260509030405 69 176 0.9 1.7 0.00 0.06 0.06 91 1008.6
20260509030305 69 176 0.9 1.7 0.00 0.06 0.06 91 1008.5
20260509030205 69 176 0.9 1.7 0.00 0.06 0.06 91 1008.5
20260509030106 69 176 0.9 1.7 0.00 0.06 0.06 91 1008.4
20260509030005 69 176 0.0 1.7 0.00 0.06 0.06 91 1008.5
20260509025906 68 176 0.0 1.7 0.00 0.06 0.06 91 1008.4
20260509025805 68 175 0.0 0.9 0.00 0.06 0.06 91 1008.4
20260509025705 69 175 0.0 0.9 0.00 0.06 0.06 91 1008.4
20260509025505 69 175 0.0 0.9 0.00 0.06 0.06 91 1008.4
20260509025406 69 175 0.0 0.9 0.00 0.06 0.06 91 1008.4
20260509025206 69 175 0.0 1.7 0.00 0.06 0.06 91 1008.4
20260509025105 69 175 0.0 1.7 0.00 0.06 0.06 90 1008.3
20260509025006 69 175 0.9 1.7 0.00 0.06 0.06 90 1008.3
20260509024905 69 175 0.9 1.7 0.00 0.06 0.06 90 1008.3
20260509024806 69 175 0.9 1.7 0.00 0.06 0.06 91 1008.3
20260509024705 69 176 0.9 1.7 0.00 0.06 0.06 91 1008.3
20260509024606 69 175 0.9 1.7 0.00 0.06 0.06 90 1008.3
20260509024406 69 175 0.9 1.7 0.00 0.06 0.06 90 1008.3
20260509024305 69 175 0.0 1.7 0.00 0.06 0.06 90 1008.2
20260509024206 69 175 0.0 1.7 0.00 0.06 0.06 91 1008.3
20260509024105 69 175 0.0 0.9 0.00 0.06 0.06 91 1008.3
20260509024006 69 175 0.0 0.9 0.00 0.06 0.06 91 1008.3
20260509023905 69 175 0.0 0.9 0.00 0.06 0.06 90 1008.3
20260509023806 69 176 0.0 0.9 0.00 0.06 0.06 90 1008.3
20260509023305 69 175 0.0 0.9 0.00 0.06 0.06 90 1008.2
20260509023206 69 176 0.0 0.9 0.00 0.06 0.06 90 1008.3
20260509023105 69 175 0.0 1.7 0.00 0.06 0.06 89 1008.3
20260509023007 69 175 0.9 1.7 0.00 0.06 0.06 89 1008.2
20260509022905 70 175 0.9 1.7 0.00 0.06 0.06 89 1008.2
20260509022806 70 176 0.9 1.7 0.00 0.06 0.06 89 1008.2
20260509022606 70 176 0.9 1.7 0.00 0.06 0.06 89 1008.2
20260509022505 70 176 0.9 1.7 0.00 0.06 0.06 89 1008.2
20260509022406 70 176 0.9 1.7 0.00 0.06 0.06 89 1008.2
20260509022307 70 176 0.9 1.7 0.00 0.06 0.06 89 1008.2
20260509022206 70 176 0.9 1.7 0.00 0.06 0.06 89 1008.1
20260509022105 70 176 0.9 1.7 0.00 0.06 0.06 89 1008.2
20260509021605 70 176 0.9 2.6 0.00 0.06 0.06 89 1008.3
20260509021505 70 176 0.9 2.6 0.00 0.06 0.06 89 1008.3
20260509021406 70 176 1.7 2.6 0.00 0.06 0.06 89 1008.2
20260509021305 70 176 1.7 2.6 0.00 0.06 0.06 89 1008.2
20260509021207 70 176 1.7 2.6 0.00 0.06 0.06 89 1008.2
20260509021105 70 176 1.7 2.6 0.00 0.06 0.06 89 1008.2
20260509021006 70 176 1.7 2.6 0.00 0.06 0.06 89 1008.2
20260509020905 70 174 1.7 2.6 0.00 0.06 0.06 89 1008.2
20260509020806 70 172 1.7 2.6 0.00 0.06 0.06 89 1008.1
20260509020705 70 169 1.7 2.6 0.00 0.06 0.06 89 1008.1
20260509020606 70 165 1.7 2.6 0.00 0.06 0.06 89 1008.1
20260509020505 70 161 1.7 2.6 0.00 0.06 0.06 89 1008.1
20260509020406 70 157 1.7 2.6 0.00 0.06 0.06 89 1008.0
20260509020305 70 154 1.7 2.6 0.00 0.06 0.06 89 1008.0
20260509020205 70 151 1.7 2.6 0.00 0.06 0.06 89 1008.0
20260509020105 70 147 1.7 2.6 0.00 0.06 0.06 89 1008.0
20260509015905 70 138 0.9 2.6 0.00 0.06 0.06 89 1008.0
20260509015806 70 134 0.9 2.6 0.00 0.06 0.06 89 1008.0
20260509015705 70 128 0.9 2.6 0.00 0.06 0.06 89 1008.0
20260509015605 70 122 0.9 2.6 0.00 0.06 0.06 89 1008.0
20260509015505 70 112 0.9 2.6 0.00 0.06 0.06 89 1008.0
20260509015406 70 100 0.9 1.7 0.00 0.06 0.06 89 1007.9
20260509015306 70 89 0.9 1.7 0.00 0.06 0.06 89 1007.9
20260509015206 70 81 0.9 1.7 0.00 0.06 0.06 89 1007.9
20260509015106 70 73 0.9 1.7 0.00 0.06 0.06 88 1007.9
20260509014906 70 46 0.9 1.7 0.00 0.06 0.06 88 1007.9
20260509014806 70 36 0.9 1.7 0.00 0.06 0.06 88 1007.9
20260509014705 70 36 0.9 1.7 0.00 0.06 0.06 88 1007.9
20260509014505 70 36 0.9 1.7 0.00 0.06 0.06 88 1007.9
20260509014406 70 36 0.9 1.7 0.00 0.06 0.06 88 1007.9
20260509014305 70 36 0.9 1.7 0.00 0.06 0.06 88 1007.9
20260509014206 70 36 0.9 1.7 0.00 0.06 0.06 88 1007.9
20260509014105 70 36 0.9 1.7 0.00 0.06 0.06 88 1007.9
20260509014006 70 36 0.9 1.7 0.00 0.06 0.06 88 1007.9
20260509013905 70 36 0.0 1.7 0.00 0.06 0.06 88 1007.9
20260509013806 71 36 0.0 1.7 0.00 0.06 0.06 88 1007.9
20260509013605 71 36 0.9 1.7 0.00 0.06 0.06 87 1007.9
20260509013305 71 40 0.9 2.6 0.00 0.06 0.06 87 1008.0
20260509013206 71 52 0.9 3.5 0.00 0.06 0.06 87 1008.0
20260509013105 71 58 1.7 3.5 0.00 0.06 0.06 87 1007.9
20260509013006 71 66 1.7 3.5 0.00 0.06 0.06 87 1007.9
20260509012905 71 74 1.7 3.5 0.00 0.06 0.06 87 1008.0
20260509012806 71 83 1.7 4.3 0.00 0.06 0.06 87 1008.0
20260509012705 71 87 1.7 4.3 0.00 0.06 0.06 87 1007.9
20260509012606 71 92 1.7 4.3 0.00 0.06 0.06 87 1007.9
20260509012307 71 109 1.7 4.3 0.00 0.06 0.06 87 1007.9
20260509012205 71 114 1.7 4.3 0.00 0.06 0.06 87 1007.9
20260509012105 71 118 1.7 5.2 0.00 0.06 0.06 87 1007.9
20260509012006 71 121 2.6 5.2 0.00 0.06 0.06 86 1007.8
20260509011905 71 126 2.6 6.1 0.00 0.06 0.06 86 1007.9
20260509011805 71 130 2.6 6.1 0.00 0.06 0.06 86 1007.9
20260509011705 72 133 2.6 6.1 0.00 0.06 0.06 86 1007.9
20260509011605 72 133 2.6 6.1 0.00 0.06 0.06 86 1007.8
20260509011506 72 133 2.6 7.0 0.00 0.06 0.06 86 1007.8
20260509011405 72 133 3.5 7.0 0.00 0.06 0.06 86 1007.7
20260509011205 72 129 3.5 7.0 0.00 0.06 0.06 86 1007.7
20260509011105 72 128 3.5 7.0 0.00 0.06 0.06 86 1007.7
20260509011006 72 127 3.5 7.0 0.00 0.06 0.06 86 1007.7
20260509010805 72 124 3.5 7.0 0.00 0.06 0.06 86 1007.8
20260509010606 72 122 4.3 7.0 0.00 0.06 0.06 86 1007.7
20260509010505 72 121 4.3 7.0 0.00 0.06 0.06 85 1007.7
20260509010406 72 121 3.5 7.0 0.00 0.06 0.06 85 1007.7
20260509010305 72 121 3.5 7.0 0.00 0.06 0.06 85 1007.7
20260509010206 72 120 3.5 7.8 0.00 0.06 0.06 85 1007.7
20260509010105 72 120 3.5 7.8 0.00 0.06 0.06 85 1007.6
20260509005905 72 118 3.5 7.8 0.00 0.06 0.06 85 1007.6
20260509005806 72 117 3.5 7.8 0.00 0.06 0.06 85 1007.7
20260509005705 72 116 3.5 7.8 0.00 0.06 0.06 85 1007.7
20260509005505 72 113 3.5 7.8 0.00 0.06 0.06 85 1007.6
20260509005306 72 109 3.5 7.8 0.00 0.06 0.06 85 1007.6
20260509005105 72 106 3.5 7.0 0.00 0.06 0.06 85 1007.6
20260509005005 72 103 3.5 7.0 0.00 0.06 0.06 85 1007.7
20260509004905 72 101 3.5 5.2 0.00 0.06 0.06 85 1007.7
20260509004805 72 101 3.5 7.8 0.00 0.06 0.06 85 1007.8
20260509004606 72 96 3.5 7.8 0.00 0.06 0.06 85 1007.8
20260509004505 72 96 3.5 7.8 0.00 0.06 0.06 85 1007.8
20260509004406 72 96 3.5 7.8 0.00 0.06 0.06 85 1007.8
20260509004305 72 95 3.5 7.8 0.00 0.06 0.06 85 1007.8
20260509004206 72 93 3.5 7.8 0.00 0.06 0.06 85 1007.8
20260509004006 72 91 3.5 7.8 0.00 0.06 0.06 85 1007.8
20260509003905 72 90 3.5 7.8 0.00 0.06 0.06 85 1007.9
20260509003807 72 88 2.6 5.2 0.00 0.06 0.06 85 1007.8
20260509003606 72 90 2.6 5.2 0.00 0.06 0.06 85 1007.9
20260509003505 72 89 2.6 5.2 0.00 0.06 0.06 85 1007.9
20260509003405 72 90 2.6 5.2 0.00 0.06 0.06 85 1007.9
20260509003305 72 90 2.6 5.2 0.00 0.06 0.06 85 1008.0
20260509003206 72 90 2.6 6.1 0.00 0.06 0.06 85 1007.9
20260509003105 72 91 2.6 6.1 0.00 0.06 0.06 85 1008.0
20260509003005 72 95 2.6 6.1 0.00 0.06 0.06 85 1008.0
20260509002905 72 97 2.6 6.1 0.00 0.06 0.06 85 1008.0
20260509002806 72 99 3.5 6.1 0.00 0.06 0.06 85 1007.9
20260509002705 72 100 3.5 6.1 0.00 0.06 0.06 85 1007.9
20260509002606 72 102 3.5 6.1 0.00 0.06 0.06 84 1007.9
20260509002505 72 104 3.5 7.0 0.00 0.06 0.06 84 1007.9
20260509002406 72 104 4.3 7.0 0.00 0.06 0.06 84 1007.9
20260509002306 72 104 3.5 7.0 0.00 0.06 0.06 84 1007.9
20260509002206 72 105 3.5 7.0 0.00 0.06 0.06 84 1007.8
20260509002105 72 107 3.5 7.0 0.00 0.06 0.06 84 1007.8
20260509002006 72 107 3.5 7.0 0.00 0.06 0.06 84 1007.8
20260509001905 72 108 3.5 7.0 0.00 0.06 0.06 84 1007.8
20260509001806 72 109 3.5 7.0 0.00 0.06 0.06 84 1007.8
20260509001705 72 110 3.5 7.0 0.00 0.06 0.06 84 1007.9
20260509001605 72 111 3.5 7.0 0.00 0.06 0.06 84 1007.9
20260509001505 72 114 3.5 7.0 0.00 0.06 0.06 84 1007.9
20260509001405 72 115 3.5 7.0 0.00 0.06 0.06 84 1007.9
20260509001305 72 117 2.6 7.0 0.00 0.06 0.06 84 1007.8
20260509001205 72 120 2.6 7.0 0.00 0.06 0.06 84 1007.8
20260509001106 72 120 3.5 7.0 0.00 0.06 0.06 84 1007.9
20260509001005 72 122 3.5 7.0 0.00 0.06 0.06 84 1007.8
20260509000905 72 122 3.5 7.8 0.00 0.06 0.06 84 1007.8
20260509000805 72 122 3.5 7.8 0.00 0.06 0.06 84 1007.8
20260509000705 72 121 3.5 7.8 0.00 0.06 0.06 84 1007.8
20260509000605 72 121 3.5 7.8 0.00 0.06 0.06 84 1007.8
20260509000505 72 120 4.3 7.8 0.00 0.06 0.06 84 1007.8
20260509000305 72 120 4.3 7.8 0.00 0.06 0.06 84 1007.9
20260509000206 72 119 4.3 7.8 0.00 0.06 0.06 84 1007.8
20260509000105 72 118 4.3 7.8 0.00 0.06 0.06 83 1007.9
20260509000005 72 117 4.3 7.8 0.00 0.06 0.06 83 1007.9
20260508235906 72 116 4.3 7.8 0.00 0.06 0.06 83 1007.9
20260508235705 72 114 4.3 7.8 0.00 0.06 0.06 83 1007.8
20260508235606 72 113 4.3 8.7 0.00 0.06 0.06 83 1007.8
20260508235505 72 113 4.3 8.7 0.00 0.06 0.06 83 1007.8
20260508235406 72 111 4.3 8.7 0.00 0.06 0.06 84 1007.8
20260508235306 72 110 4.3 8.7 0.00 0.06 0.06 83 1007.9
20260508235206 72 110 4.3 8.7 0.00 0.06 0.06 83 1008.0
20260508235105 72 110 4.3 8.7 0.00 0.06 0.06 83 1007.9
20260508235006 72 108 4.3 8.7 0.00 0.06 0.06 83 1008.0
20260508234905 72 107 3.5 8.7 0.00 0.06 0.06 83 1008.0
20260508234805 72 104 3.5 8.7 0.00 0.06 0.06 83 1008.0
20260508234706 72 103 3.5 8.7 0.00 0.06 0.06 83 1008.0
20260508234605 72 102 3.5 6.1 0.00 0.06 0.06 83 1008.0
20260508234505 72 101 3.5 7.0 0.00 0.06 0.06 83 1008.0
20260508234306 72 100 4.3 7.0 0.00 0.06 0.06 83 1008.0
20260508234205 72 98 3.5 7.0 0.00 0.06 0.06 83 1008.0
20260508234105 72 97 3.5 7.0 0.00 0.06 0.06 83 1008.0
20260508234005 72 99 3.5 7.0 0.00 0.06 0.06 83 1008.0
20260508233905 72 99 3.5 7.0 0.00 0.06 0.06 83 1008.0
20260508233805 72 100 3.5 7.0 0.00 0.06 0.06 83 1008.0
20260508233705 72 101 3.5 7.0 0.00 0.06 0.06 83 1008.1
20260508233606 72 101 3.5 8.7 0.00 0.06 0.06 83 1008.0
20260508233505 73 100 3.5 8.7 0.00 0.06 0.06 83 1008.1
20260508233305 72 99 3.5 8.7 0.00 0.06 0.06 83 1008.0
20260508233205 72 100 3.5 8.7 0.00 0.06 0.06 83 1008.0
20260508233105 72 99 3.5 8.7 0.00 0.06 0.06 83 1008.0
20260508232905 72 98 3.5 8.7 0.00 0.06 0.06 83 1008.0
20260508232806 72 97 3.5 8.7 0.00 0.06 0.06 82 1008.0
20260508232705 72 97 3.5 8.7 0.00 0.06 0.06 82 1008.0
20260508232606 72 97 3.5 7.8 0.00 0.06 0.06 82 1008.1
20260508232406 72 102 3.5 7.8 0.00 0.06 0.06 82 1008.0
20260508232307 72 106 3.5 7.8 0.00 0.06 0.06 82 1008.0
20260508232205 72 109 3.5 7.8 0.00 0.06 0.06 82 1008.1
20260508232005 72 113 3.5 7.8 0.00 0.06 0.06 82 1008.1
20260508231905 72 114 3.5 7.8 0.00 0.06 0.06 82 1008.1
20260508231805 72 116 4.3 7.8 0.00 0.06 0.06 82 1008.1
20260508231704 72 118 4.3 8.7 0.00 0.06 0.06 83 1008.1
20260508231605 72 119 4.3 8.7 0.00 0.06 0.06 82 1008.1
20260508231505 72 119 4.3 8.7 0.00 0.06 0.06 82 1008.0
20260508231405 72 117 5.2 8.7 0.00 0.06 0.06 82 1008.1
20260508231305 72 117 5.2 8.7 0.00 0.06 0.06 82 1008.0
20260508231205 72 115 5.2 8.7 0.00 0.06 0.06 82 1007.9
20260508231105 72 116 5.2 8.7 0.00 0.06 0.06 83 1007.9
20260508231006 72 115 5.2 8.7 0.00 0.06 0.06 83 1007.8
20260508230905 72 114 5.2 8.7 0.00 0.06 0.06 82 1007.9
20260508230806 72 114 5.2 8.7 0.00 0.06 0.06 82 1007.9
20260508230606 72 112 5.2 8.7 0.00 0.06 0.06 82 1007.9
20260508230505 72 112 4.3 8.7 0.00 0.06 0.06 82 1008.0
20260508230406 72 113 4.3 8.7 0.00 0.06 0.06 82 1008.0
20260508230305 72 112 4.3 8.7 0.00 0.06 0.06 82 1008.1
20260508230206 72 112 3.5 8.7 0.00 0.06 0.06 82 1008.1
20260508230105 72 110 3.5 8.7 0.00 0.06 0.06 82 1008.1
20260508230006 72 109 3.5 8.7 0.00 0.06 0.06 82 1008.1
20260508225905 72 110 3.5 7.0 0.00 0.06 0.06 82 1008.1
20260508225805 72 109 3.5 7.0 0.00 0.06 0.06 82 1008.1
20260508225705 72 109 3.5 7.0 0.00 0.06 0.06 82 1008.1
20260508225605 73 108 3.5 6.1 0.00 0.06 0.06 82 1008.2
20260508225505 73 108 3.5 6.1 0.00 0.06 0.06 82 1008.2
20260508225405 73 108 3.5 7.0 0.00 0.06 0.06 82 1008.2
20260508225306 72 107 3.5 7.0 0.00 0.06 0.06 82 1008.2
20260508225205 72 105 4.3 7.8 0.00 0.06 0.06 82 1008.2
20260508225105 72 104 4.3 7.8 0.00 0.06 0.06 82 1008.2
20260508225005 72 103 4.3 7.8 0.00 0.06 0.06 82 1008.3
20260508224905 72 103 4.3 7.8 0.00 0.06 0.06 81 1008.3
20260508224607 72 103 4.3 7.8 0.00 0.06 0.06 81 1008.3
20260508224506 72 103 3.5 7.8 0.00 0.06 0.06 81 1008.3
20260508224405 73 102 4.3 7.8 0.00 0.06 0.06 81 1008.3
20260508224205 73 106 4.3 8.7 0.00 0.06 0.06 81 1008.2
20260508224005 73 113 4.3 8.7 0.00 0.06 0.06 81 1008.2
20260508223805 73 116 4.3 8.7 0.00 0.06 0.06 81 1008.1
20260508223705 73 117 3.5 8.7 0.00 0.06 0.06 81 1008.2
20260508223505 73 116 3.5 8.7 0.00 0.06 0.06 80 1008.2
20260508223406 73 117 3.5 8.7 0.00 0.06 0.06 80 1008.2
20260508223206 73 120 2.6 8.7 0.00 0.06 0.06 79 1008.2
20260508223105 73 118 2.6 8.7 0.00 0.06 0.06 79 1008.2
20260508223005 73 115 2.6 6.1 0.00 0.06 0.06 79 1008.3
20260508222805 73 111 3.5 6.1 0.00 0.06 0.06 80 1008.3
20260508222705 73 106 3.5 7.8 0.00 0.06 0.06 80 1008.3
20260508222605 73 105 3.5 7.8 0.00 0.06 0.06 80 1008.3
20260508222505 73 104 3.5 7.8 0.00 0.06 0.06 80 1008.3
20260508222405 73 104 3.5 7.8 0.00 0.06 0.06 80 1008.3
20260508222306 73 102 4.3 7.8 0.00 0.06 0.06 80 1008.3
20260508222205 73 100 4.3 7.8 0.00 0.06 0.06 80 1008.4
20260508222005 73 101 4.3 7.8 0.00 0.06 0.06 80 1008.4
20260508221805 73 99 4.3 7.8 0.00 0.06 0.06 80 1008.4
20260508221705 73 100 4.3 7.8 0.00 0.06 0.06 80 1008.4
20260508221605 73 100 4.3 7.0 0.00 0.06 0.06 80 1008.4
20260508221507 73 102 4.3 7.0 0.00 0.06 0.06 80 1008.4
20260508221405 73 101 4.3 7.0 0.00 0.06 0.06 79 1008.4
20260508221305 73 102 4.3 7.8 0.00 0.06 0.06 80 1008.4
20260508221206 73 101 4.3 7.8 0.00 0.06 0.06 80 1008.4
20260508221105 73 98 4.3 7.8 0.00 0.06 0.06 80 1008.3
20260508221006 73 95 3.5 7.8 0.00 0.06 0.06 79 1008.3
20260508220706 73 95 3.5 7.8 0.00 0.06 0.06 79 1008.4
20260508220605 73 92 3.5 7.8 0.00 0.06 0.06 79 1008.4
20260508220505 73 90 3.5 7.8 0.00 0.06 0.06 79 1008.4
20260508220405 73 90 3.5 7.8 0.00 0.06 0.06 79 1008.5
20260508220306 73 90 3.5 7.0 0.00 0.06 0.06 79 1008.4
20260508220206 73 92 3.5 7.8 0.00 0.06 0.06 80 1008.5
20260508220105 73 94 3.5 7.8 0.00 0.06 0.06 80 1008.5
20260508220006 73 94 4.3 7.8 0.00 0.06 0.06 79 1008.5
20260508215906 73 93 4.3 7.8 0.00 0.06 0.06 80 1008.5
20260508215805 73 92 4.3 7.8 0.00 0.06 0.06 79 1008.5
20260508215706 73 95 4.3 7.8 0.00 0.06 0.06 80 1008.6
20260508215605 73 98 3.5 7.8 0.00 0.06 0.06 79 1008.6
20260508215405 73 100 3.5 7.8 0.00 0.06 0.06 79 1008.6
20260508215306 73 99 3.5 7.8 0.00 0.06 0.06 79 1008.7
20260508215105 73 99 2.6 7.8 0.00 0.06 0.06 79 1008.6
20260508215005 73 105 2.6 7.0 0.00 0.06 0.06 79 1008.5
20260508214905 73 110 2.6 7.0 0.00 0.06 0.06 79 1008.6
20260508214805 73 114 2.6 7.0 0.00 0.06 0.06 80 1008.5
20260508214605 72 115 2.6 7.0 0.00 0.06 0.06 80 1008.6
20260508214506 72 116 2.6 7.0 0.00 0.06 0.06 80 1008.6
20260508214405 72 116 2.6 7.0 0.00 0.06 0.06 80 1008.7
20260508214305 72 115 3.5 7.0 0.00 0.06 0.06 80 1008.8
20260508214205 72 112 3.5 7.0 0.00 0.06 0.06 80 1008.8
20260508214005 72 110 3.5 7.0 0.00 0.06 0.06 80 1008.8
20260508213705 72 105 4.3 7.8 0.00 0.06 0.06 80 1008.8
20260508213605 72 104 4.3 8.7 0.00 0.06 0.06 80 1008.8
20260508213505 72 103 4.3 8.7 0.00 0.06 0.06 80 1008.8
20260508213404 72 101 4.3 8.7 0.00 0.06 0.06 80 1008.8
20260508213305 72 101 4.3 8.7 0.00 0.06 0.06 81 1008.8
20260508212805 72 96 4.3 8.7 0.00 0.06 0.06 81 1008.8
20260508212604 72 90 4.3 7.8 0.00 0.06 0.06 81 1008.9
20260508212506 72 89 4.3 7.8 0.00 0.06 0.06 81 1008.9
20260508212205 72 89 4.3 7.8 0.00 0.06 0.06 81 1009.1
20260508212005 72 89 4.3 7.8 0.00 0.06 0.06 81 1009.2
20260508211905 72 87 3.5 7.8 0.00 0.06 0.06 81 1009.2
20260508211805 72 90 4.3 7.8 0.00 0.06 0.06 81 1009.2
20260508211605 72 99 3.5 7.8 0.00 0.06 0.06 80 1009.2
20260508211506 72 99 3.5 7.8 0.00 0.06 0.06 80 1009.2
20260508211405 72 100 3.5 7.8 0.00 0.06 0.06 80 1009.2
20260508211305 73 98 3.5 7.8 0.00 0.06 0.06 79 1009.3
20260508211205 73 101 3.5 7.8 0.00 0.06 0.06 79 1009.3
20260508211105 73 103 3.5 7.8 0.00 0.06 0.06 80 1009.2
20260508211004 73 105 3.5 7.8 0.00 0.06 0.06 80 1009.2
20260508210905 72 105 3.5 7.8 0.00 0.06 0.06 80 1009.2
20260508210804 72 103 4.3 8.7 0.00 0.06 0.06 80 1009.2
20260508210705 72 101 4.3 8.7 0.00 0.06 0.06 81 1009.2
20260508210605 72 100 4.3 8.7 0.00 0.06 0.06 81 1009.1
20260508210505 72 103 4.3 8.7 0.00 0.06 0.06 82 1009.1
20260508210405 72 104 4.3 8.7 0.00 0.06 0.06 82 1009.1
20260508210305 71 106 4.3 8.7 0.00 0.06 0.06 82 1009.0
20260508210205 71 107 4.3 8.7 0.00 0.06 0.06 82 1009.0
20260508210105 71 108 4.3 8.7 0.00 0.06 0.06 82 1009.0
20260508210005 71 108 4.3 8.7 0.00 0.06 0.06 82 1009.1
20260508205906 71 111 4.3 8.7 0.00 0.06 0.06 83 1009.2
20260508205705 71 111 4.3 8.7 0.00 0.06 0.06 83 1009.3
20260508205605 71 111 4.3 8.7 0.00 0.06 0.06 83 1009.4
20260508205505 71 114 4.3 8.7 0.00 0.06 0.06 82 1009.4
20260508205306 71 115 3.5 8.7 0.00 0.06 0.06 82 1009.5
20260508205204 71 115 3.5 7.8 0.00 0.06 0.06 82 1009.6
20260508205105 71 115 4.3 7.8 0.00 0.06 0.06 82 1009.6
20260508205004 71 117 4.3 7.8 0.00 0.06 0.06 82 1009.6
20260508204905 71 118 4.3 7.8 0.00 0.06 0.06 82 1009.6
20260508204805 71 121 4.3 7.8 0.00 0.06 0.06 82 1009.7
20260508204406 71 126 3.5 7.8 0.00 0.06 0.06 82 1009.7
20260508204305 71 128 3.5 7.8 0.00 0.06 0.06 82 1009.7
20260508204205 71 128 3.5 7.8 0.00 0.06 0.06 82 1009.7
20260508204105 71 126 3.5 7.8 0.00 0.06 0.06 82 1009.8
20260508204005 71 125 3.5 7.8 0.00 0.06 0.06 82 1009.8
20260508203905 71 126 3.5 7.8 0.00 0.06 0.06 82 1009.9
20260508203805 71 125 2.6 7.8 0.00 0.06 0.06 82 1009.9
20260508203705 71 127 3.5 7.0 0.00 0.06 0.06 81 1009.9
20260508203605 71 128 3.5 8.7 0.00 0.06 0.06 81 1010.0
20260508203305 71 128 4.3 8.7 0.00 0.06 0.06 81 1009.9
20260508203205 71 124 4.3 8.7 0.00 0.06 0.06 81 1009.9
20260508203105 71 122 4.3 8.7 0.00 0.06 0.06 81 1009.9
20260508202905 71 116 5.2 8.7 0.00 0.06 0.06 81 1009.9
20260508202706 72 113 5.2 8.7 0.00 0.06 0.06 81 1009.8
20260508202605 72 111 5.2 8.7 0.00 0.06 0.06 81 1009.7
20260508202505 72 106 5.2 8.7 0.00 0.06 0.06 81 1009.7
20260508202406 72 100 5.2 8.7 0.00 0.06 0.06 80 1009.7
20260508202307 72 98 5.2 8.7 0.00 0.06 0.06 81 1009.7
20260508202205 72 97 5.2 8.7 0.00 0.06 0.06 81 1009.6
20260508202105 72 96 5.2 8.7 0.00 0.06 0.06 81 1009.6
20260508202005 72 96 5.2 8.7 0.00 0.06 0.06 80 1009.5
20260508201905 72 96 5.2 8.7 0.00 0.06 0.06 80 1009.6
20260508201704 72 95 4.3 8.7 0.00 0.06 0.06 81 1009.6
20260508201605 72 92 5.2 7.8 0.00 0.06 0.06 81 1009.7